GFSFLT2_con_mlcape_000.txt.gz
CAPE
0 0 0 0 0 0 2 7 0 0 0 0 0 0 0 6 45 93 299 235 95 232 420 624 832 1103 1427 1788 2099 2253 2286 2535
0 0 0 0 0 0 0 0 1 0 0 0 0 0 0 1 52 112 241 300 125 184 325 535 802 1021 1402 1725 2019 2174 2151 2323
0 0 0 0 0 0 0 0 0 0 0 0 0 0 0 0 48 92 173 399 338 194 249 573 663 840 1269 1695 1959 2171 2186 2229
0 0 0 0 0 0 0 0 0 0 0 0 0 0 0 0 0 0 107 356 519 462 444 501 759 712 952 1331 1775 2080 2162 2394
0 0 0 0 0 0 0 0 0 0 0 0 0 0 0 0 16 39 203 417 649 690 743 788 799 1016 1080 1460 1673 1859 2125 2300
0 0 0 0 0 0 0 0 0 0 2 0 0 0 0 0 0 73 347 476 765 787 969 1074 1086 1428 1561 1508 1727 1922 2014 2336
0 0 0 0 0 0 0 0 0 0 0 0 0 0 0 0 0 76 374 356 790 994 1323 1585 1522 1637 1793 1847 1882 1950 2149 2244
8 1 0 0 0 0 0 0 0 0 0 0 0 0 0 0 0 79 522 338 890 1188 1416 1757 1788 1927 2037 2089 1992 2137 2282 2404
41 64 25 5 0 0 0 0 0 0 0 0 0 0 0 0 18 84 449 354 697 1072 1361 1808 1926 2143 2136 2132 2094 2148 2343 2436
76 132 100 0 0 0 0 0 0 0 0 0 0 0 0 26 13 104 554 737 815 962 1322 1537 1551 1676 1664 1845 1957 2119 2375 2429
49 94 62 2 112 3 0 0 0 0 0 0 0 0 36 43 29 234 671 978 1008 983 1202 1272 1058 1274 1347 1539 1768 2001 2192 2253
110 73 30 350 189 126 160 1 0 0 0 0 0 0 0 110 14 94 473 663 780 703 944 889 785 968 1229 1425 1761 1984 2119 2102
93 110 122 248 135 289 134 6 0 0 10 16 12 179 281 174 282 452 706 815 827 740 604 706 809 1052 1175 1411 1607 1875 2109 1997
95 129 74 71 304 400 363 220 298 263 314 296 272 451 545 567 697 758 645 540 449 663 967 1144 1173 1353 1364 1520 1992 2174 2198 1802
56 52 40 1 170 368 440 472 424 387 337 342 306 376 440 439 448 454 410 405 539 912 1293 1575 1808 1822 1920 2543 2417 2288 1892 1642
160 62 0 1 25 79 208 264 213 246 199 225 210 212 250 330 477 705 873 758 748 836 968 1097 1521 1795 2208 1751 2043 2076 1679 1646
82 2 0 0 0 0 7 59 121 155 160 182 397 540 524 739 803 833 950 931 843 933 1376 1499 1756 1849 1868 1773 1745 1733 1532 1446
36 27 1 0 0 0 0 0 0 2 2 12 55 86 310 562 834 1181 1212 1308 1418 1503 1799 1960 1977 1934 1979 1778 1753 1689 1238 1288
19 0 0 0 0 0 0 0 0 0 0 0 0 0 0 0 6 31 158 653 1646 1509 1713 1745 1845 1819 1806 1889 1746 1467 1224 1159

GFSFLT2_con_mlcape_003.txt.gz
CAPE
0 0 0 0 0 0 1 19 13 13 11 3 9 44 35 13 0 11 63 362 291 207 499 768 818 1264 1596 2017 2666 3111 2536 3393
0 0 0 0 0 0 0 1 9 21 17 14 10 0 0 9 2 2 18 336 365 214 338 585 728 1095 1605 2058 2656 2616 2635 3140
0 0 0 0 0 0 0 0 1 13 23 11 17 4 0 0 0 13 26 190 472 284 268 431 523 762 1257 1735 2289 2673 2749 2575
0 0 0 0 0 0 0 0 0 1 20 12 0 0 0 1 3 14 15 83 313 420 261 326 537 486 755 1110 1461 2267 2673 2911
0 0 0 0 0 0 0 0 2 0 0 0 0 1 13 1 0 0 39 53 232 342 359 444 509 549 442 949 1038 1544 2392 2696
0 0 0 0 0 0 0 0 0 0 5 27 11 0 0 0 0 0 24 246 214 429 490 581 675 773 710 753 753 1232 1843 2064
0 0 0 0 0 0 0 0 0 0 3 5 6 10 0 0 0 0 0 134 549 706 989 1168 984 1215 1189 975 1198 1360 2007 2175
0 0 0 0 0 0 0 0 0 0 0 0 0 7 1 0 0 0 0 0 530 969 1090 1738 1533 1819 1821 1691 1822 1962 2542 2603
13 14 37 15 0 0 0 0 0 0 0 0 0 0 4 0 0 0 0 0 146 915 1260 1645 1734 2205 2175 2363 2156 2419 2755 3033
25 94 52 0 0 7 6 1 0 0 0 0 0 0 0 0 0 0 0 0 12 750 1385 1866 1867 1899 1978 2357 2662 2928 3104 3188
43 121 94 67 424 257 294 48 4 1 0 0 0 0 0 0 0 0 0 11 170 1075 1445 2165 2122 2343 2517 2560 2817 2990 3054 3261
141 64 49 12 504 371 242 4 1 9 8 0 0 21 0 0 0 177 220 89 512 1290 1612 2293 2340 2333 2480 2404 2608 2881 3035 3205
9 48 48 640 318 413 151 161 799 589 311 102 0 4 390 318 248 269 291 974 1677 1560 2137 2180 2151 1935 2119 2141 2309 2415 2575 2803
21 40 35 371 367 338 720 597 750 740 591 656 3 404 535 658 663 703 862 1208 1363 1571 1785 1697 1729 1870 1957 2029 2298 2506 2604 2675
38 53 547 445 547 622 619 663 791 849 786 746 867 759 858 989 1224 1291 1277 1305 1221 1170 1273 1296 1652 1945 2156 2631 2707 2756 2832 2344
237 330 306 373 355 366 410 546 609 822 890 929 982 910 793 674 606 542 666 856 977 1152 1567 1974 1920 2013 2842 2916 2858 2920 2445 1865
385 144 58 31 69 76 168 247 242 400 630 811 756 759 864 951 961 861 812 766 943 1246 1616 1880 2286 2716 2505 2805 2872 2297 1990 1924
267 156 45 0 0 0 0 0 0 1 18 155 422 549 895 1065 1073 1045 1012 1031 1134 1171 1583 1967 2236 2359 2374 2472 2583 2393 2161 2118
4 0 0 0 0 0 0 0 0 0 0 0 0 0 3 40 123 229 754 834 1016 1073 1424 1809 2047 2346 2387 2441 2510 2193 2062 1898

GFSFLT2_con_mlcape_006.txt.gz
CAPE
0 0 0 0 0 0 0 0 0 1 9 2 8 84 0 0 9 41 365 477 379 536 732 1026 1128 1257 1654 2437 3039 3489 3415 3372
0 0 0 0 0 0 0 0 0 0 0 19 9 68 8 0 0 5 34 486 558 472 961 1093 1245 1255 1750 2045 3053 3680 3532 3530
0 0 0 0 0 0 0 0 0 0 0 23 95 28 101 23 2 0 0 309 372 615 666 1162 1412 1406 1636 1964 2819 3458 3641 3415
0 0 0 0 0 0 0 0 0 0 0 0 8 68 16 5 0 0 2 33 151 654 620 929 1207 1339 1610 2017 2527 3115 3353 3317
0 0 0 0 0 0 0 0 0 0 0 0 1 0 6 0 1 8 0 108 140 532 680 756 924 1120 1451 1819 2269 3052 3173 3154
0 0 0 0 0 0 0 0 0 0 0 0 47 0 0 5 3 13 0 295 271 363 816 703 877 1026 1300 1660 1983 2538 2931 2968
0 0 0 0 0 0 0 0 0 0 0 7 0 35 12 0 0 4 9 226 161 510 631 898 988 1083 1123 1238 1479 1720 2480 2963
0 0 0 0 0 0 0 0 0 0 0 0 0 0 81 1 0 2 0 0 454 312 780 1359 1216 1208 1138 1060 1249 1428 1840 2499
0 0 0 0 0 0 0 0 0 0 0 0 0 6 80 171 8 19 8 0 3 784 933 1327 1819 1367 1223 1161 1340 1331 1796 2366
0 1 6 0 0 0 0 0 0 0 0 0 0 0 0 0 0 6 44 0 0 0 1135 1502 2108 1842 1668 1550 1508 1528 2322 2499
11 41 0 6 12 54 22 3 0 0 0 0 0 0 0 0 0 0 0 94 9 0 76 1434 1895 2025 2323 2068 1748 2608 2364 3234
30 28 0 15 315 283 233 97 580 569 406 244 15 1 0 0 1 3 0 0 46 227 361 1562 2177 2256 2423 2754 2564 2324 3218 3589
10 6 0 233 306 149 217 192 728 703 700 638 353 318 331 577 536 677 45 76 130 755 1820 2192 2543 2660 2597 2778 3103 3014 3740 3887
49 102 96 392 26 12 513 648 583 532 610 554 550 497 402 676 706 270 671 409 1211 2408 2625 3070 2946 3062 3222 3233 3508 3677 3769 4002
0 0 2 660 912 699 594 572 821 961 806 444 412 584 971 986 1182 1218 1100 1373 1878 2850 3041 3045 3171 3124 3056 3117 3182 3304 3414 3759
17 68 697 600 442 393 493 872 934 991 1149 1308 1201 1079 1116 1222 1376 1498 1730 1923 2090 2188 2370 2650 2693 2928 3138 3026 3176 3221 3344 2914
86 749 612 530 432 441 419 535 505 260 260 392 870 933 1308 1329 1496 1743 1760 2083 2416 2527 2884 2933 3479 3263 3381 3508 3494 3097 2600 2267
474 518 248 148 129 13 0 36 4 0 0 0 20 38 180 810 971 1365 1657 1874 2100 2407 2632 2561 2841 2999 3222 3306 2909 2563 2250 1848
1 21 0 0 0 0 0 0 0 0 0 0 0 0 0 33 103 835 1350 1644 2014 2265 2565 2638 2670 2622 2766 2837 2441 2146 2106 2311

GFSFLT2_con_mlcape_009.txt.gz
CAPE
0 0 0 0 0 0 0 0 0 0 0 0 0 16 75 48 100 53 13 57 15 93 392 661 736 1207 1380 2040 2067 2172 2378 2283
0 0 0 0 0 0 0 0 0 0 0 0 0 5 26 31 39 43 2 17 94 134 366 652 791 1087 1452 1913 2228 2497 2342 2550
0 0 0 0 0 0 0 0 0 0 0 0 0 6 105 41 26 36 4 43 178 195 345 717 932 1138 1409 1911 2443 2611 2785 2690
0 0 0 0 0 0 0 0 0 0 0 0 0 15 142 81 40 31 1 29 143 295 467 889 1061 1074 1386 2189 2429 2680 2844 2907
0 0 0 0 0 0 0 0 0 0 0 0 0 0 0 3 28 7 4 274 470 383 770 1011 1109 1116 1477 2013 2635 2941 3096 3043
0 0 0 0 0 0 0 0 0 0 0 0 0 0 5 26 13 1 4 83 503 554 814 1064 1271 1270 1276 1844 2547 2970 3299 3218
0 0 0 0 0 0 0 0 0 0 0 0 0 0 23 52 41 2 13 222 460 596 651 1013 1240 1352 1414 1605 1923 2761 3061 3206
0 0 0 0 0 0 0 0 0 0 0 0 0 0 0 122 36 2 45 217 282 570 641 715 1009 1206 1406 1589 1881 2209 2846 2999
0 0 0 0 0 0 0 0 0 0 0 0 0 0 0 4 82 4 2 317 467 413 873 785 867 1048 1308 1499 1658 2031 2452 2851
0 0 0 0 0 0 0 0 0 0 0 0 0 0 0 0 0 1 1 0 135 152 414 1267 1024 1007 1178 1375 1680 1867 1988 2564
0 0 0 0 0 0 0 0 14 19 16 0 0 0 0 0 0 0 0 0 0 145 330 470 1470 1229 1088 1231 1480 1607 1712 1958
0 0 0 0 7 209 87 27 483 269 154 49 82 0 1 85 574 34 0 0 0 0 3 437 1336 1626 1372 1197 1277 1301 1436 1723
14 0 0 38 97 174 115 257 407 359 320 292 111 204 209 104 500 630 542 96 5 0 0 298 1062 1805 1724 1474 1277 1457 1363 2309
41 50 53 281 271 246 411 617 559 606 670 286 234 161 164 420 620 755 636 460 1545 498 233 524 1585 2153 2228 1793 1722 2127 2662 3242
0 25 62 84 381 91 421 752 845 755 1161 897 745 1306 1486 1195 1025 1095 1441 1815 2220 2494 2749 2643 2358 2554 2932 3257 3045 3038 3705 3725
0 0 22 86 48 681 390 155 199 762 844 729 723 937 988 1173 1562 1840 2107 2613 2713 2893 3238 3381 3374 3295 3336 3574 3608 3729 3515 3237
6 257 575 511 352 396 223 44 0 54 230 421 547 479 601 783 990 1514 2167 2571 2760 2882 3139 3254 3345 3393 3422 3525 3560 3309 2969 2377
53 89 121 62 5 15 1 0 0 0 19 0 4 80 121 164 149 308 562 494 2577 3042 3228 3304 3333 3249 3125 2908 2761 2614 2206 2014
19 0 0 0 0 0 0 0 0 0 0 0 0 0 0 12 3 3 20 0 837 1995 2420 2584 2682 2705 2593 2484 2422 2314 2163 1929

GFSFLT2_con_mlcape_012.txt.gz
CAPE
0 0 0 0 0 0 0 0 0 0 0 0 0 0 0 4 15 0 0 0 0 34 68 145 240 494 753 1037 999 1096 1195 1066
0 0 0 0 0 0 0 0 0 0 0 0 0 0 0 1 10 9 1 0 0 1 108 258 236 548 888 1095 1089 1236 1363 1315
0 0 0 0 0 0 0 0 0 0 0 0 0 0 0 0 15 28 19 16 0 9 98 258 367 736 1015 1208 1220 1439 1612 1558
0 0 0 0 0 0 0 0 0 0 0 0 0 0 0 0 6 140 127 34 40 22 71 266 524 858 1000 1433 1403 1483 1697 1785
0 0 0 0 0 0 0 0 0 0 0 0 0 0 0 0 2 19 27 10 1 46 91 295 550 779 1156 1418 1639 1817 1852 1965
0 0 0 0 0 0 0 0 0 0 0 0 0 0 0 0 1 56 38 4 0 62 134 425 624 813 1209 1387 1941 1961 2215 2153
0 0 0 0 0 0 0 0 0 0 0 0 0 0 0 0 5 56 101 0 0 39 220 509 786 880 1164 1521 1804 2126 2242 2390
0 0 0 0 0 0 0 0 0 0 0 0 0 0 0 0 0 2 7 0 21 86 285 505 822 915 1068 1462 2012 2201 2375 2375
0 0 0 0 0 0 0 0 0 0 0 0 0 0 0 0 0 0 0 0 81 227 428 605 889 1012 1053 1440 1958 2383 2389 2615
0 0 0 0 0 0 0 0 0 0 0 0 0 0 0 0 0 0 0 4 91 427 542 740 934 1099 1177 1321 1784 2301 2412 2594
0 0 0 0 0 0 0 0 0 0 0 0 0 0 0 0 0 0 0 0 74 459 658 631 822 1035 1267 1365 1591 1879 2249 2413
0 0 0 0 0 1 0 21 161 0 0 0 0 0 0 0 9 0 0 0 0 0 33 491 677 851 1016 1261 1511 1654 1907 2173
0 0 0 3 16 81 12 48 141 42 3 0 0 0 0 0 133 213 78 0 0 0 0 3 527 865 815 975 1222 1463 1731 1982
0 0 58 0 72 53 180 696 384 298 231 113 234 270 594 272 402 407 155 244 399 12 0 0 84 599 744 810 931 1246 1528 1727
0 0 0 0 49 711 745 578 541 403 394 273 282 480 952 1250 1562 1702 1548 1303 1355 795 330 279 363 803 762 916 1041 1073 1229 1498
0 0 0 436 516 300 319 389 347 304 273 270 275 655 789 930 1016 1138 1340 1464 1344 1901 2417 1339 1138 1104 1335 1152 1233 1367 1792 2343
0 0 0 94 186 51 12 42 90 144 257 284 273 247 452 645 717 804 585 207 79 82 316 755 2194 2349 2462 2312 2537 2408 2337 2390
4 0 0 0 0 0 0 0 0 0 0 0 28 55 59 60 2 0 0 0 0 0 0 0 67 561 3326 3090 2644 2327 2137 2168
4 0 0 0 0 0 0 0 0 0 0 0 0 0 0 0 0 0 0 0 0 0 0 0 60 8 1563 2369 2297 2453 2335 1975

GFSFLT2_con_mlcape_015.txt.gz
CAPE
0 0 0 0 0 0 0 0 0 0 0 0 0 0 0 0 0 0 0 0 5 21 7 80 169 215 498 509 472 775 976 1010
0 0 0 0 0 0 0 0 0 0 0 0 0 0 0 0 0 0 0 0 2 23 23 20 87 141 369 557 531 502 776 986
0 0 0 0 0 0 0 0 0 0 0 0 0 0 0 0 0 0 0 0 0 25 30 27 49 66 284 580 610 586 662 846
0 0 0 0 0 0 0 0 0 0 0 0 0 0 0 0 0 0 0 0 0 8 18 56 59 72 262 502 700 667 761 883
0 0 0 0 0 0 0 0 0 0 0 0 0 0 0 0 0 0 0 0 0 0 0 11 49 95 279 562 713 829 951 1011
0 0 0 0 0 0 0 0 0 0 0 0 0 0 0 0 0 0 0 0 0 0 0 8 24 149 363 657 842 960 1130 1243
0 0 0 0 0 0 0 0 0 0 0 0 0 0 0 0 0 0 0 0 0 0 0 2 13 173 461 724 1067 1099 1166 1412
0 0 0 0 0 0 0 0 0 0 0 0 0 0 0 0 0 0 0 0 0 8 14 22 75 207 415 869 1119 1364 1381 1445
0 0 0 0 0 0 0 0 0 0 0 0 0 0 0 0 0 0 0 0 0 0 0 18 124 323 443 862 1150 1590 1576 1703
0 0 0 0 0 0 0 0 0 0 0 0 0 0 0 0 0 0 0 0 0 0 0 59 222 492 583 922 1258 1551 1741 1854
0 0 0 0 0 0 0 0 0 0 0 0 0 0 0 0 0 0 0 0 0 0 12 147 348 650 833 901 1256 1713 1827 1996
0 0 0 0 0 0 0 0 0 0 0 0 0 0 0 0 0 0 0 0 0 0 39 257 542 884 974 1002 1269 1618 1953 2049
0 0 0 0 0 5 0 0 0 0 0 0 0 0 0 0 2 35 1 0 0 0 109 385 643 963 1115 1166 1178 1455 1837 2144
0 0 0 0 36 84 108 30 94 0 0 0 6 10 57 168 448 562 492 742 1423 1357 714 200 63 574 1012 1150 1233 1349 1591 1827
0 0 1 0 11 92 104 308 265 238 275 211 226 230 225 289 455 568 660 586 349 542 560 761 1826 396 476 776 1138 1353 1462 1549
26 0 4 12 5 37 38 127 100 114 268 325 436 478 436 496 422 433 596 662 401 295 204 91 0 1436 1564 1309 1110 955 1228 1429
38 15 7 0 13 0 0 0 13 21 113 319 278 126 61 51 74 66 39 48 224 411 313 90 0 0 6 454 1191 1114 1027 1196
11 5 1 0 0 0 0 0 0 3 1 0 17 35 4 1 0 0 0 0 0 0 0 0 0 4 90 82 62 1476 1308 1559
184 34 0 0 8 0 0 0 0 0 0 0 0 0 0 0 4 21 7 2 28 118 51 75 278 120 0 0 0 555 1644 2040

GFSFLT2_con_mlcape_018.txt.gz
CAPE
0 0 0 0 0 0 0 0 0 0 0 0 0 0 0 0 0 0 0 0 31 170 163 126 128 150 254 382 460 542 575 522
0 0 0 0 0 0 0 0 0 0 0 0 0 0 0 0 0 0 0 0 0 0 17 48 98 121 237 353 393 449 610 653
0 0 0 0 0 0 0 0 0 0 0 0 0 0 0 0 0 0 0 0 0 0 2 9 30 97 181 354 414 403 648 760
0 0 0 0 0 0 0 0 0 0 0 0 0 0 0 0 0 0 0 0 0 0 0 1 3 19 107 275 418 403 476 805
0 0 0 0 0 0 0 0 0 0 0 0 0 0 0 0 0 0 0 0 0 0 0 0 0 0 41 153 363 478 451 611
0 0 0 0 0 0 0 0 0 0 0 0 0 0 0 0 0 0 0 0 0 0 0 0 0 0 8 105 296 518 575 566
0 0 0 0 0 0 0 0 0 0 0 0 0 0 0 0 0 0 0 0 0 0 0 0 0 11 53 109 285 515 617 676
0 0 0 0 0 0 0 0 0 0 0 0 0 0 0 0 0 0 0 0 0 0 0 0 0 45 143 196 349 559 714 737
0 0 0 0 0 0 0 0 0 0 0 0 0 0 0 0 0 0 0 0 0 0 0 0 5 123 191 313 514 666 773 925
0 0 0 0 0 0 0 0 0 0 0 0 0 0 0 0 0 0 0 0 0 0 0 0 11 78 246 331 598 858 935 1035
0 0 0 0 0 0 0 0 0 0 0 0 0 0 0 0 0 0 0 0 0 0 0 0 0 69 188 388 660 904 1142 1239
0 0 0 0 0 0 0 0 0 0 0 0 0 0 0 0 0 0 0 0 0 0 0 0 0 1 164 413 717 884 1309 1424
0 0 0 0 0 3 0 0 0 0 0 0 0 0 0 0 0 2 16 0 0 0 0 0 32 246 372 528 719 974 1336 1666
0 0 0 0 3 16 0 0 1 0 0 0 0 0 0 0 79 286 394 762 468 115 191 94 59 422 651 751 828 1034 1319 1624
0 0 0 0 1 25 0 10 1 0 0 0 0 0 6 107 266 201 172 108 5 23 208 741 1231 167 483 836 855 815 1110 1431
8 0 0 9 28 10 3 0 1 18 43 34 98 137 124 67 70 40 1 0 0 0 0 0 0 0 0 1 947 1377 888 987
0 0 23 49 19 22 19 3 41 32 39 30 0 0 0 0 0 0 0 0 0 0 0 0 0 0 0 0 0 22 621 937
0 0 7 5 26 0 50 23 3 11 6 4 16 26 17 20 0 2 16 1 13 70 36 49 41 0 0 0 0 0 0 190
7 55 30 79 11 19 50 19 0 19 4 11 25 49 21 2 0 9 43 77 85 138 312 265 240 52 0 0 0 0 0 267

GFSFLT2_con_mlcape_021.txt.gz
CAPE
0 0 0 0 0 0 0 0 0 0 0 0 0 0 0 0 0 0 77 415 572 771 872 798 839 733 636 537 665 813 802 787
0 0 0 0 0 0 0 0 0 0 0 0 0 0 0 0 0 0 0 14 221 611 707 730 715 844 688 617 660 817 898 914
0 0 0 0 0 0 0 0 0 0 0 0 0 0 0 0 0 0 0 0 0 216 564 694 626 681 749 645 731 920 992 1050
0 0 0 0 0 0 0 0 0 0 0 0 0 0 0 0 0 0 0 0 0 15 161 335 588 538 635 671 757 877 1008 1112
0 0 0 0 0 0 0 0 0 0 0 0 0 0 0 0 0 0 0 0 0 1 12 70 203 482 574 602 661 820 1016 1094
0 0 0 0 0 0 0 0 0 0 0 0 0 0 0 0 0 0 0 0 0 0 0 3 46 197 325 548 648 797 962 1062
0 0 0 0 0 0 0 0 0 0 0 0 0 0 0 0 0 0 0 0 0 0 0 0 5 118 216 333 634 767 981 1001
0 0 0 0 0 0 0 0 0 0 0 0 0 0 0 0 0 0 0 0 0 0 0 0 1 52 196 284 499 754 946 922
0 0 0 0 0 0 0 0 0 0 0 0 0 0 0 0 0 0 0 0 0 0 0 0 0 20 176 314 536 707 838 1095
0 0 0 0 0 0 0 0 0 0 0 0 0 0 0 0 0 0 0 0 0 0 0 0 0 52 271 429 505 666 880 1099
0 0 0 0 0 0 0 0 0 0 0 0 0 0 0 0 0 0 0 0 0 0 0 0 0 0 294 454 590 744 826 995
0 0 0 0 0 0 0 0 0 0 0 0 0 0 0 0 0 0 0 0 0 0 0 0 0 0 179 438 721 747 888 1100
0 0 0 0 0 40 0 0 0 0 0 0 0 0 0 0 0 0 0 0 0 0 0 0 8 11 37 283 468 893 1301 1532
0 0 0 0 0 0 17 8 0 0 0 0 0 27 0 0 0 2 7 0 0 0 0 137 340 576 602 696 1121 1429 1556 1722
0 0 0 0 0 0 46 15 24 6 1 1 4 94 0 2 244 428 301 277 846 494 52 83 471 935 949 1075 1056 1289 1552 1743
2 0 0 0 0 5 32 0 18 9 18 15 123 39 157 211 139 70 0 0 0 0 25 125 267 416 644 842 1640 1565 1480 1766
8 0 0 0 0 4 13 0 27 17 2 6 16 9 0 0 0 0 0 0 0 14 14 4 12 1 0 0 0 8 436 1119
0 1 4 0 1 32 3 38 29 0 7 3 6 0 0 0 1 0 11 135 237 397 300 159 0 0 0 6 0 0 0 15
0 0 0 1 0 0 23 119 39 25 39 16 2 1 1 15 48 29 62 89 72 147 200 349 458 387 417 339 295 132 79 55

GFSFLT2_con_mlcape_024.txt.gz
CAPE
0 0 0 0 0 0 0 0 0 0 0 0 0 0 0 0 0 0 350 730 826 868 1097 1244 1201 1216 1375 1509 1828 1862 1674 1948
0 0 0 0 0 0 0 0 0 0 0 0 0 0 0 0 0 0 17 473 674 864 941 1190 1371 1379 1450 1567 1610 1704 1798 1844
0 0 0 0 0 0 0 0 0 0 0 0 0 0 0 0 0 0 0 69 344 578 795 940 1225 1494 1580 1632 1664 1671 1848 1979
0 0 0 0 0 0 0 0 0 0 0 0 0 0 0 0 0 0 0 0 7 95 341 755 1012 1286 1463 1610 1643 1684 1725 2086
0 0 0 0 0 0 0 0 0 0 0 0 0 0 0 0 0 0 0 7 43 32 62 392 793 1150 1138 1365 1508 1509 1822 1877
0 0 0 0 0 0 0 0 0 0 0 0 0 0 0 0 0 0 0 0 0 0 8 130 449 946 1333 1062 1181 1299 1404 1720
0 0 0 0 0 0 0 0 0 0 0 0 0 0 0 0 0 0 0 0 0 0 38 334 363 803 1374 1277 1058 1104 1407 1518
0 0 0 0 0 0 0 0 0 0 0 0 0 0 0 0 0 0 0 0 0 0 0 0 129 626 848 1199 1055 1228 1519 1667
0 0 0 0 0 0 0 0 0 0 0 0 0 0 0 0 0 0 0 0 0 0 0 0 0 240 574 997 1094 1281 1517 1905
0 0 0 0 0 0 0 0 0 0 0 0 0 0 0 0 0 0 0 0 0 0 0 0 0 0 415 865 1289 1296 1784 1894
0 0 0 0 0 0 0 0 0 0 0 0 0 0 0 0 0 0 0 0 0 0 0 0 0 0 46 880 1236 1375 1749 1750
0 0 0 0 0 0 0 0 0 0 0 0 2 0 0 0 0 0 0 0 0 0 0 0 0 0 185 604 1019 1422 1768 1919
0 0 0 0 0 22 0 29 7 0 0 0 20 29 163 171 29 0 0 0 0 0 0 0 89 99 122 652 903 1558 1827 1862
0 0 0 0 0 0 15 23 3 3 0 0 53 268 276 356 424 49 0 49 402 0 0 376 906 856 478 738 1342 1777 1916 2002
0 0 0 0 0 0 0 0 0 0 0 0 0 81 375 692 456 317 447 828 1079 451 1241 1590 1801 1835 1748 1787 1802 1909 2083 2203
1 0 0 0 0 0 0 0 0 0 0 0 0 11 522 740 718 857 616 701 896 1342 1283 1620 2421 2650 2847 2578 2389 2507 2632 2780
18 13 1 0 0 0 0 2 0 0 0 0 0 0 595 783 580 371 242 343 741 829 869 904 860 747 703 838 1268 2589 2685 2675
4 1 2 2 3 0 4 0 0 0 0 2 7 35 12 37 188 427 617 799 894 848 787 492 499 710 989 954 1010 869 717 656
11 34 45 36 22 0 0 0 0 0 5 6 41 45 43 59 143 105 236 306 423 494 936 934 332 277 425 1038 895 896 936 875

GFSFLT2_con_mlcape_027.txt.gz
CAPE
0 0 0 0 0 0 0 0 0 0 0 0 0 0 0 0 0 14 73 346 795 1021 1208 1060 711 1057 1312 1738 2411 2736 2530 2674
0 0 0 0 0 0 0 0 0 0 0 0 0 0 0 0 0 0 3 235 682 933 1197 1322 1083 1068 1454 1806 2416 2687 2499 2666
0 0 0 0 0 0 0 0 0 0 0 0 0 0 0 0 0 0 0 116 593 909 1081 1320 1345 1202 1335 1783 2216 2630 2561 2555
0 0 0 0 0 0 0 0 0 0 0 0 0 0 0 0 0 0 0 11 430 688 842 931 1260 1462 1524 1604 1733 2501 2531 2729
0 0 0 0 0 0 0 0 0 0 0 0 0 0 0 0 0 0 0 3 107 467 557 754 949 1405 1574 1845 1788 1795 2324 2497
0 0 0 0 0 0 0 0 0 0 0 0 0 0 0 0 0 0 0 0 27 28 36 369 706 1254 1748 1688 1802 1848 1972 2107
0 0 0 0 0 0 0 0 0 0 0 0 0 0 0 0 0 0 0 0 0 0 20 100 528 1386 1690 1560 1726 1852 2151 2264
0 0 0 0 0 0 0 0 0 0 0 0 0 0 0 0 0 0 0 0 0 0 0 177 325 972 1372 1990 1702 1631 2220 2258
0 0 0 0 0 0 0 0 0 0 0 0 0 0 0 0 0 0 0 0 0 0 0 0 153 339 740 1552 1896 1761 1847 2472
1 0 0 0 0 0 0 0 0 0 0 0 0 0 0 0 0 0 0 0 0 0 0 0 0 0 233 528 1749 2081 2231 2235
0 0 0 0 0 0 0 0 0 0 0 0 0 0 0 0 0 0 0 0 0 0 0 0 0 0 0 477 1204 1983 2165 2610
0 0 5 0 0 0 0 0 0 0 0 0 0 0 1 177 86 21 1 0 0 0 0 0 0 0 0 0 561 1854 2333 2552
0 0 0 0 5 3 0 105 92 4 2 3 2 93 356 378 422 407 403 302 41 116 106 0 0 0 36 84 343 1299 1982 2383
0 0 0 0 0 29 8 1 3 9 3 3 9 22 47 159 448 709 625 362 6 78 514 128 0 301 722 644 1037 1698 2066 2484
0 0 0 0 0 0 0 0 0 0 0 0 0 0 0 41 703 1034 798 898 863 951 708 944 1838 1897 1580 1866 1821 2173 2581 2912
0 0 0 0 0 0 0 0 0 0 0 0 0 0 0 80 1075 1090 1110 1069 1033 1401 1660 2162 2973 2780 2926 3384 2791 2454 2763 2869
0 0 0 0 0 0 0 0 0 0 0 0 0 0 0 130 1265 1173 1000 819 1350 1649 1965 1980 1996 1868 1855 2066 3067 3154 3283 3264
17 8 1 0 0 0 0 0 0 0 0 0 0 0 2 53 649 1245 1211 1392 1672 1765 1457 1311 1515 1625 1679 1716 1784 1966 2881 3092
27 1 4 13 14 8 0 0 0 0 0 0 0 5 34 129 447 444 532 701 1051 1358 1151 732 551 866 1258 1430 1525 1609 1729 1479

GFSFLT2_con_mlcape_030.txt.gz
CAPE
0 0 0 0 0 0 0 0 0 0 0 0 0 0 0 12 73 59 78 222 797 1253 1290 1038 810 969 1252 1929 2380 2511 2125 2506
0 0 0 0 0 0 0 0 0 0 0 0 0 0 0 0 3 27 53 132 695 1140 1452 1225 901 989 1142 1766 2420 2561 2678 2463
0 0 0 0 0 0 0 0 0 0 0 0 0 0 0 0 0 1 105 245 571 1209 1480 1472 1125 1087 1176 1372 2282 2760 2794 2733
0 0 0 0 0 0 0 0 0 0 1 0 0 0 0 0 0 0 9 364 506 887 1409 1680 1427 1222 1285 1520 2003 2678 3072 3058
0 0 0 0 0 0 0 0 0 0 0 0 0 0 0 0 0 0 1 58 450 910 1160 1596 1697 1555 1506 1584 1777 2592 3041 3160
0 0 0 0 0 0 0 0 0 0 0 0 0 0 0 0 0 0 2 10 475 758 1117 1426 1712 1842 1771 1723 1878 2066 2846 3120
0 0 1 0 0 0 0 0 0 0 0 0 0 0 0 0 0 5 29 201 438 676 1205 1190 1474 1818 2033 1980 1975 2046 2107 2901
0 0 0 0 0 0 0 0 0 0 0 0 0 0 0 0 0 0 0 14 19 32 74 284 1575 1878 1969 2077 2298 2212 2227 2371
0 0 0 0 0 0 0 0 0 0 0 0 0 0 0 0 0 0 0 0 0 0 0 16 199 1900 2132 2114 2163 2465 2429 2588
0 0 0 0 0 0 0 0 0 0 0 0 0 0 0 0 0 0 0 0 0 0 0 0 0 248 1089 2213 2172 2092 2378 2477
0 0 0 3 0 0 0 0 0 0 0 0 0 0 0 0 0 0 0 0 0 0 0 0 0 22 279 426 1913 2215 1994 2296
0 0 0 0 0 0 0 0 112 6 0 0 0 0 278 639 560 529 573 547 510 306 145 14 10 0 0 606 1460 1742 1883 2113
0 0 0 0 0 0 0 43 43 27 32 9 118 469 473 104 231 652 743 635 524 399 257 424 337 36 110 39 372 1810 2155 2467
0 0 0 0 0 7 8 0 0 0 0 0 0 0 8 0 38 532 964 887 546 364 104 403 632 215 50 290 655 976 1749 2634
0 0 0 0 0 0 0 0 0 0 0 0 0 0 0 47 172 1106 1369 1151 1431 1400 1288 1446 1291 2064 1885 2142 2340 1847 2951 2729
0 0 0 0 0 0 0 0 0 0 0 0 0 0 0 25 210 757 1659 1371 1055 1269 1683 2910 3684 3594 3225 3597 2921 2750 3335 3513
0 0 0 0 0 0 0 0 0 0 0 0 0 0 0 0 93 251 1112 2083 2367 2286 2340 2626 2527 2463 2387 2619 3294 3430 3200 3480
0 0 0 0 0 0 0 0 0 0 0 0 0 0 0 7 95 186 481 1070 1755 2208 1919 2010 2074 2008 2150 2239 2500 3296 3792 3745
0 0 0 0 0 0 0 0 0 0 0 0 0 0 0 0 18 157 395 804 908 1712 1463 1338 1188 1402 1649 1922 2141 2416 2252 2279

GFSFLT2_con_mlcape_033.txt.gz
CAPE
0 0 0 0 0 0 0 0 0 0 0 0 0 0 0 1 52 179 579 820 510 508 526 392 634 936 1480 1779 1557 1699 1749 1515
0 0 0 0 0 0 0 0 0 0 0 0 0 0 0 0 0 74 756 487 721 635 595 502 555 876 1134 1908 1680 1615 1602 1701
0 0 0 0 0 0 0 0 0 0 0 0 0 0 0 0 0 0 153 869 1053 839 778 703 591 917 1078 1509 1878 1848 1697 1522
0 0 0 0 0 0 0 0 0 0 0 0 0 0 0 0 0 2 34 797 1272 1163 1074 911 736 884 1012 1258 1849 1911 1962 1733
0 0 0 0 0 0 0 0 0 0 0 0 0 0 0 0 0 0 41 742 1204 1346 1298 1163 882 838 915 1154 1632 2023 2190 2256
0 0 0 0 0 0 0 0 0 0 0 0 0 0 0 0 0 0 91 569 1065 1287 1445 1356 1064 913 959 1017 1388 2087 2310 2376
0 0 0 1 0 0 0 0 0 0 0 0 0 0 0 0 1 4 0 421 952 1210 1456 1552 1325 1061 1051 1066 1229 1514 2312 2500
0 0 0 0 0 0 0 0 0 0 0 0 0 4 0 0 0 2 155 373 777 988 1406 1601 1609 1385 1224 1215 1318 1451 2040 2339
0 0 0 0 0 0 0 0 0 0 0 0 1 0 0 0 0 0 0 0 14 112 1058 1545 1683 1761 1620 1525 1465 1594 1711 2177
0 0 0 0 0 1 0 0 0 0 1 0 26 50 2 0 0 0 0 0 0 0 0 0 748 1933 1895 1888 1881 1750 1812 1933
0 0 0 0 0 0 1 7 8 124 70 72 113 9 195 415 343 247 96 71 88 54 111 0 0 192 2206 2185 2241 2319 2147 2189
0 0 0 0 0 0 0 4 0 205 228 23 31 6 161 242 480 580 612 545 274 179 125 330 107 110 1286 2015 2322 2406 2617 2761
0 0 0 0 0 0 0 0 0 0 9 213 82 27 4 39 485 1115 1019 851 489 331 236 157 639 89 152 858 1518 1979 2058 2045
0 0 0 0 0 0 0 0 0 0 0 0 0 0 5 91 417 973 1554 1277 1130 1038 1084 645 241 343 132 329 1103 1701 2122 2340
0 0 0 0 0 0 0 0 0 0 0 0 0 0 0 0 80 105 984 1520 1607 1588 1811 3137 2812 2270 1276 2012 2078 2228 1535 1371
0 0 0 0 0 0 0 0 0 0 0 0 0 0 0 0 31 28 144 778 1378 1884 2597 2793 2940 2692 2552 2517 2697 2996 1975 2938
0 1 0 0 0 0 0 0 0 0 0 0 0 0 0 0 0 0 0 1 205 837 1693 2117 2167 2126 2230 2420 2761 3026 3160 3967
0 0 1 0 0 0 0 0 0 0 0 0 0 0 0 0 0 0 0 0 11 293 901 1790 1614 1451 1296 1746 1849 2642 3489 3491
0 0 0 0 0 0 0 0 0 0 0 0 0 0 0 0 0 0 0 34 350 619 1230 1423 1250 1156 1168 1624 1772 2072 2409 3360

GFSFLT2_con_mlcape_036.txt.gz
CAPE
0 0 0 0 0 0 0 0 0 0 0 0 0 0 0 12 103 329 244 156 135 326 322 246 418 594 505 433 485 831 746 829
0 0 0 0 0 0 0 0 0 0 0 0 0 0 0 0 65 362 426 248 188 318 397 312 467 640 751 716 589 884 960 824
0 0 0 0 0 0 0 0 0 0 0 0 0 0 0 0 2 106 452 371 103 260 445 403 438 691 1080 1068 927 1120 1252 1188
0 0 0 0 0 0 0 0 0 0 0 0 0 0 0 0 6 74 209 358 236 423 471 472 484 698 1040 1419 1283 1218 1374 1430
0 0 0 0 0 0 0 0 0 0 0 0 0 0 0 0 0 15 102 295 505 583 516 567 480 641 978 1432 1481 1433 1451 1480
0 0 0 0 0 0 0 0 0 0 0 0 0 0 0 0 0 0 24 628 704 730 617 648 532 534 866 1088 1674 1618 1610 1576
0 0 0 0 0 0 0 0 0 0 0 0 0 0 0 0 0 0 33 594 762 826 745 779 678 586 918 1059 1398 1740 1754 1747
0 0 0 0 0 0 0 0 0 0 0 0 0 0 0 0 0 0 227 762 1038 1010 969 1019 905 782 878 1007 1256 1712 1760 1785
0 0 0 0 0 0 0 0 0 0 0 0 0 1 1 0 0 3 304 864 1165 1218 1153 1215 1111 903 890 947 1100 1633 1769 1867
0 0 0 0 0 0 0 0 0 0 0 13 104 178 98 44 0 0 27 297 581 1057 1270 1359 1246 1052 929 979 1078 1199 1550 1908
0 0 0 0 0 0 0 0 0 0 116 287 221 61 413 476 498 132 1 1 119 384 803 1221 1594 1509 1271 1169 1217 1264 1350 1455
0 0 0 0 0 0 0 0 0 0 271 220 46 58 388 530 836 807 353 113 17 47 151 34 396 1569 1740 1629 1556 1510 1486 1620
0 0 0 0 0 0 0 0 0 0 0 11 64 76 86 301 584 1105 1229 980 878 787 448 122 149 261 1545 1895 2003 1947 1828 1671
0 0 0 1 0 0 0 0 0 0 0 0 0 0 3 15 122 458 885 1436 2190 1773 1712 1702 946 644 1123 1844 2101 2020 2206 2289
2 1 1 0 2 0 0 0 0 0 0 0 0 0 0 0 0 0 56 709 1390 2160 2453 2427 2191 2034 1592 2031 2216 2155 1913 2225
0 0 0 0 0 0 0 0 0 0 0 0 0 0 0 0 0 0 0 18 429 1197 1930 1972 1965 2071 2129 2224 2346 2444 1939 1715
0 0 0 0 0 0 0 0 0 0 0 0 0 0 0 0 0 0 0 1 145 670 1208 1608 1442 1190 1034 1163 1588 2444 2584 2836
0 0 0 0 0 0 0 0 0 0 0 0 0 0 0 0 0 0 0 0 136 403 798 1190 1273 1084 907 1056 1304 1485 2257 3025
2 0 0 0 0 0 0 0 0 0 0 0 0 0 0 0 0 0 0 0 0 164 614 984 709 752 976 1058 1245 1092 1638 1591

GFSFLT2_con_mlcape_039.txt.gz
CAPE
0 0 0 0 0 0 0 0 0 0 0 0 0 0 0 0 43 29 25 40 154 287 198 122 146 159 152 159 190 117 36 104
0 0 0 0 0 0 0 0 0 0 0 0 0 0 0 0 10 35 41 55 99 260 242 159 134 165 176 171 257 242 170 213
0 0 0 0 0 0 0 0 0 0 0 0 0 0 0 0 0 33 29 61 106 228 276 218 119 260 203 206 216 394 428 384
0 0 0 0 0 0 0 0 0 0 0 0 0 0 0 0 0 0 47 131 169 192 225 266 219 298 394 277 286 347 565 515
0 0 0 0 0 0 0 0 0 0 0 0 0 0 0 0 0 0 7 134 226 216 199 297 285 277 558 527 448 378 602 695
0 0 0 0 0 0 0 0 0 0 0 0 0 0 0 0 0 0 0 49 259 270 94 329 358 282 517 783 762 644 721 891
0 0 0 0 0 0 0 0 0 0 0 0 0 0 0 0 0 0 0 0 220 255 110 285 388 350 585 904 1133 1028 978 1094
0 0 0 0 0 0 0 0 0 0 0 0 0 0 0 0 0 0 0 0 42 252 288 365 405 402 496 905 1314 1359 1259 1210
0 0 0 0 0 0 0 0 0 0 0 0 0 0 6 1 0 0 0 1 83 242 412 473 492 451 526 806 1200 1507 1472 1452
0 0 0 0 0 0 0 0 0 0 0 23 47 185 122 179 16 0 0 0 78 403 588 580 592 552 529 875 1000 1423 1600 1622
0 0 0 0 0 0 0 0 0 0 59 405 340 185 256 139 320 32 13 163 420 653 735 713 789 731 707 895 1046 1253 1498 1680
0 0 0 0 0 0 0 0 0 0 0 111 144 53 179 91 304 566 564 405 648 839 937 1012 987 859 860 965 1014 1125 1403 1679
0 2 0 0 0 0 0 0 0 0 0 0 28 18 3 0 325 728 1119 990 733 622 744 768 1061 1160 1165 1102 1164 1186 1113 1219
1 0 0 0 0 0 0 0 0 0 0 0 0 0 0 0 83 542 882 1072 1266 908 737 939 1041 1353 1388 1482 1578 1340 1230 1274
1 1 0 7 4 0 0 0 0 0 0 0 0 0 0 0 0 28 522 1217 1522 1720 1738 1778 1866 1982 2058 2225 2478 1934 1907 1902
0 0 0 0 0 0 0 0 0 0 0 0 0 0 0 0 0 0 27 451 994 1421 1438 1298 1096 1240 1483 1883 2142 2239 2132 2235
0 0 0 0 0 0 0 0 0 0 0 0 0 0 0 0 0 0 0 1 131 721 1194 1126 866 846 893 1035 1283 2085 2205 2340
0 0 0 0 0 0 0 0 0 0 0 0 0 0 0 0 0 0 0 0 6 101 543 656 622 694 813 883 896 878 1501 2073
0 0 0 0 0 0 0 0 0 0 0 0 0 0 0 0 0 0 0 0 0 20 299 584 455 624 963 1013 1053 724 986 1311

GFSFLT2_con_mlcape_042.txt.gz
CAPE
0 0 0 0 0 0 0 0 0 0 0 0 0 0 0 11 103 151 216 209 198 220 172 94 58 55 4 0 0 0 0 0
0 0 0 0 0 0 0 0 0 0 0 0 0 0 0 0 0 38 140 94 103 160 153 133 103 98 25 0 5 0 0 0
0 0 0 0 0 0 0 0 0 0 0 0 0 0 0 0 0 0 47 44 35 71 156 124 120 123 69 35 41 21 12 24
0 0 0 0 0 0 0 0 0 0 0 0 0 0 0 0 0 0 17 41 20 32 100 141 96 111 95 71 71 125 122 111
0 0 0 0 0 0 0 0 0 0 0 0 0 0 0 0 0 0 0 29 49 45 53 123 129 115 121 103 113 173 225 210
0 0 0 0 0 0 0 0 0 0 0 0 0 0 0 0 0 0 0 7 39 68 104 162 187 137 179 149 139 171 313 345
0 0 0 0 0 0 0 0 0 0 0 0 0 0 0 0 0 0 0 0 1 29 90 167 210 175 308 304 219 224 300 490
0 0 0 0 0 0 0 0 0 0 0 0 0 0 0 0 0 0 0 0 0 2 91 142 203 254 337 478 443 371 355 532
0 0 0 0 0 0 0 0 0 0 0 0 0 1 1 0 0 0 0 0 0 0 78 130 238 280 333 526 676 641 581 626
0 0 0 0 0 0 0 0 0 0 0 0 1 136 101 33 0 29 0 0 0 4 90 149 256 323 288 598 931 912 877 908
0 0 0 0 0 0 0 0 0 0 0 4 150 103 236 19 0 159 442 0 4 74 175 194 265 339 391 691 1098 1151 1106 1169
0 0 31 0 0 0 0 0 0 0 0 0 111 18 67 1 39 234 675 160 3 94 233 319 369 378 502 684 998 1153 1221 1343
2 3 1 1 0 0 0 0 0 0 0 0 0 0 0 7 139 282 860 725 368 421 492 495 499 493 616 736 861 1001 1270 1524
0 1 1 3 0 0 0 0 0 0 0 0 0 0 0 9 123 229 526 831 992 920 795 598 634 693 748 801 816 859 1098 1403
0 1 0 2 0 0 0 0 0 0 0 0 0 0 0 0 1 20 204 471 766 887 951 981 963 972 1073 1353 1386 990 993 1134
1 0 0 0 0 0 0 0 0 0 0 0 0 0 0 0 0 0 0 102 343 681 862 1031 1201 1463 1696 1966 1926 1605 1480 1308
0 0 0 0 0 0 0 0 0 0 0 0 0 0 0 0 0 0 0 0 72 354 487 492 619 806 897 1119 1824 2126 2334 2428
0 0 1 0 0 0 0 0 0 0 0 0 0 0 0 0 0 0 0 0 2 283 327 345 548 770 837 807 676 1049 1961 2206
3 3 0 0 0 0 0 0 0 0 0 0 0 0 0 0 0 0 0 0 0 1 334 299 377 491 371 314 498 545 626 1067

GFSFLT2_con_mlcape_045.txt.gz
CAPE
0 0 0 0 0 0 0 0 0 0 0 0 0 0 0 1 181 304 463 434 362 303 201 197 132 76 133 126 67 11 1 140
0 0 0 0 0 0 0 0 0 0 0 0 0 0 0 0 36 127 322 483 453 413 317 231 180 150 89 89 87 84 9 78
0 0 0 0 0 0 0 0 0 0 0 0 0 0 0 0 0 37 146 351 462 592 503 369 243 266 188 92 108 81 45 78
0 0 0 0 0 0 1 0 0 0 0 0 0 0 0 0 0 0 63 177 258 519 550 524 446 359 342 253 186 156 141 87
0 0 0 0 0 0 0 0 0 0 0 0 0 0 0 0 0 0 8 90 219 269 380 553 531 503 461 402 299 278 248 191
0 0 0 0 0 0 0 2 0 1 0 0 0 0 0 0 0 0 0 14 141 146 181 352 446 534 550 485 387 375 352 341
0 0 0 0 0 0 0 0 2 0 0 0 0 0 0 0 0 0 0 0 21 45 86 138 453 433 537 549 488 445 535 515
0 0 0 0 0 0 0 0 0 0 0 0 0 0 0 0 0 0 0 0 0 47 77 107 301 415 426 522 559 571 633 652
0 0 0 1 0 0 0 0 0 0 0 0 0 0 0 0 0 0 0 45 21 0 58 134 279 543 466 557 668 653 677 811
0 1 1 0 1 0 2 0 0 0 0 0 0 246 147 7 0 0 8 12 59 41 2 178 301 487 649 754 744 711 756 846
14 5 1 81 3 1 7 0 0 0 0 0 219 692 523 18 0 3 20 111 518 502 0 140 383 609 740 970 931 851 862 890
2 1 0 4 0 0 0 0 0 0 0 0 330 77 130 0 0 19 323 933 511 35 0 215 465 644 820 1079 1097 976 1028 1050
0 1 0 4 2 0 23 0 0 0 0 4 24 1 2 2 1 2 173 724 462 230 263 439 653 787 900 1217 1182 1309 1500 1517
0 0 0 2 0 0 0 0 0 0 0 6 0 0 0 0 0 1 96 407 960 681 664 568 630 795 936 1143 1656 1831 1914 1790
0 0 1 6 3 0 0 0 0 0 0 0 0 0 0 0 0 0 21 360 745 1112 1169 1122 920 1003 1072 1207 1552 1622 1791 1851
0 2 5 2 1 1 0 0 0 0 0 0 0 0 0 0 0 0 0 77 426 818 974 1111 1405 1615 1726 1808 1354 1455 1565 1758
0 2 1 0 0 2 1 0 0 0 0 0 0 0 0 0 0 0 0 0 105 382 680 871 1068 1108 1176 1595 2195 1664 1467 1521
0 3 4 2 1 4 0 0 0 0 0 0 0 0 0 0 0 0 0 0 0 30 377 498 485 447 414 416 963 2196 2868 2312
4 3 2 1 0 1 1 0 0 0 0 0 0 0 0 0 0 0 0 0 0 0 0 115 173 106 78 183 358 675 1291 1684

GFSFLT2_con_mlcape_048.txt.gz
CAPE
0 0 0 0 0 0 0 0 0 0 0 0 0 0 0 0 48 120 385 535 655 692 524 341 415 436 479 508 603 698 505 801
0 0 0 0 0 0 0 0 0 0 0 0 0 0 0 0 0 57 304 535 680 746 717 508 454 461 443 474 667 657 491 557
0 0 0 0 0 0 4 0 0 0 0 0 0 0 0 0 0 1 175 507 657 749 768 692 517 461 533 554 643 768 699 637
0 0 0 0 0 0 4 0 0 0 0 0 0 0 0 0 0 0 55 267 513 608 674 720 691 543 506 558 603 701 767 959
0 0 0 0 0 0 0 0 4 0 0 0 0 0 0 0 0 0 13 97 359 441 549 674 767 728 584 562 535 586 708 695
0 0 0 0 0 0 5 8 0 0 1 11 0 0 0 0 0 0 0 5 71 241 369 719 795 1092 965 709 585 515 665 660
0 0 0 0 0 0 0 0 0 0 5 0 0 0 0 0 0 0 0 1 60 108 273 735 979 1330 1262 945 867 733 927 754
0 0 0 0 0 0 0 0 0 0 0 0 0 0 0 0 0 0 0 0 0 13 99 352 804 1312 1519 1402 1138 1042 1281 1127
0 0 0 0 0 0 0 0 0 0 0 0 1 0 0 0 0 7 31 54 91 40 22 126 501 1079 1257 1510 1345 1252 1457 1454
1 0 19 0 0 0 0 0 0 0 0 0 5 6 628 358 217 180 123 125 187 247 287 32 224 490 993 1156 1488 1512 1628 1667
26 2 0 0 0 0 0 0 0 0 0 0 0 31 758 361 141 223 185 276 431 513 531 671 70 290 841 974 1330 1564 1680 1821
14 7 3 0 0 0 3 2 49 13 42 4 1 51 93 65 0 79 148 294 525 1008 1233 973 949 219 567 1075 1227 1637 1718 1802
4 13 5 0 0 2 0 22 0 0 0 29 74 13 0 0 0 0 19 265 827 1192 1233 1085 796 253 871 1226 1347 1709 1576 1689
11 6 0 0 1 2 6 0 1 0 0 0 0 0 0 0 0 0 8 636 1360 875 463 331 147 734 1434 1514 1710 1830 1824 1891
0 0 0 0 2 19 2 4 2 0 0 0 0 0 0 0 0 0 0 113 1350 1360 913 813 987 1013 1459 1794 1881 1921 1999 2228
0 1 1 4 13 25 11 4 1 0 0 0 0 0 0 0 0 0 0 0 349 1122 1692 1625 1336 1340 1515 1857 2257 2307 2367 2460
0 1 3 10 11 25 13 3 1 0 0 0 0 0 0 0 0 0 0 0 0 174 680 856 1037 1299 2023 2268 2166 2410 2536 2644
0 3 4 2 14 24 13 2 1 0 0 1 0 0 0 0 0 0 0 0 0 0 28 113 194 489 843 1562 2437 1904 2076 2285
4 3 13 17 8 8 4 0 2 0 3 0 0 0 0 2 0 0 0 0 0 0 0 3 5 17 200 1118 1612 2621 2567 2470

GFSFLT2_con_mlcape_051.txt.gz
CAPE
0 0 0 0 0 0 0 0 0 0 0 0 0 0 1 0 191 220 388 489 470 411 423 483 552 603 558 906 1325 1377 717 950
0 0 0 0 0 0 0 0 0 0 0 0 0 0 0 0 2 150 210 443 529 659 553 509 560 656 652 790 1259 1368 956 1130
0 0 0 0 0 0 1 0 0 0 0 0 0 0 0 0 0 14 72 346 547 690 800 670 594 630 694 735 974 1094 1193 1163
0 0 0 0 0 0 0 0 0 0 0 0 0 0 0 0 0 0 1 213 555 658 891 937 806 694 753 680 695 993 1058 1397
0 0 0 0 0 0 0 0 9 1 0 0 0 0 0 0 0 0 0 63 429 619 738 930 999 915 757 742 643 668 1091 1199
0 0 0 0 0 0 0 9 1 0 10 4 4 0 7 0 0 0 0 44 173 500 493 769 1029 1224 1128 860 684 544 776 871
0 0 0 0 0 0 0 0 0 0 0 2 2 4 16 1 0 0 0 18 101 310 550 973 1078 1454 1473 1069 1036 739 820 826
2 0 0 0 0 0 0 0 0 0 0 0 0 0 0 0 11 0 0 0 10 88 195 734 1207 1536 1750 1463 1332 1060 1090 983
7 10 0 0 0 0 0 0 0 0 0 0 0 0 0 0 13 1 4 0 2 0 81 157 575 1395 1514 1805 1481 1473 1506 1302
12 18 2 1 0 0 0 0 0 0 0 0 0 0 0 14 595 520 317 79 74 101 62 36 229 523 1121 1557 1880 1840 1641 2073
23 19 4 1 0 0 2 0 0 0 0 0 0 0 0 0 779 602 604 615 564 545 440 399 114 134 810 1262 2183 1951 2231 2087
64 15 11 0 1 29 0 0 0 0 0 0 0 0 0 319 926 715 586 517 614 709 725 775 848 486 356 1065 1534 2129 2356 2287
26 8 12 0 33 0 0 0 0 0 0 0 0 0 15 117 193 125 358 582 730 1014 1014 1171 1318 1001 550 841 1423 2009 2272 2487
14 26 16 8 0 0 0 0 0 1 10 3 135 422 40 0 0 0 9 92 457 1693 1737 1728 1660 1734 1484 959 1552 1867 2257 2396
19 8 12 22 1 1 0 2 0 23 262 471 252 61 0 0 0 0 1 2 196 1641 1998 1084 1064 1694 1822 1028 2063 2078 2300 2470
0 0 1 3 0 8 4 3 15 2 0 0 0 0 0 0 0 2 3 1 1 734 2362 2180 1942 1081 1061 2602 2277 2565 2617 2597
0 1 1 5 9 8 18 27 17 3 4 4 3 1 4 4 0 0 1 0 3 5 98 534 1095 1699 1906 2233 2444 2515 2676 2846
0 1 3 4 6 14 17 4 2 10 0 0 0 11 20 10 0 0 0 0 0 1 2 2 4 22 398 1170 2588 2517 2694 2673
2 6 5 7 6 4 11 18 11 1 0 15 9 8 35 15 10 0 0 0 1 2 1 3 2 2 12 466 1605 2556 2837 3013

GFSFLT2_con_mlcape_054.txt.gz
CAPE
0 0 0 0 0 0 0 0 0 0 0 0 0 0 109 42 61 76 15 254 293 387 341 354 334 260 526 807 1019 1102 764 1203
0 0 0 0 0 0 0 0 0 0 0 0 0 0 0 23 0 0 0 59 191 445 483 595 470 566 512 934 1136 1320 1107 1160
0 0 0 0 0 0 0 0 0 0 0 0 5 0 0 17 23 0 57 54 6 97 670 662 691 821 665 849 1280 1487 1507 1110
0 0 0 0 0 0 0 0 0 0 0 0 1 0 0 0 1 106 260 103 56 79 2 726 787 808 890 830 1312 1547 1659 1281
0 0 0 0 0 0 0 0 0 0 0 0 0 0 0 0 0 0 302 152 1 19 38 747 745 850 1016 944 916 1519 1740 1424
0 0 0 0 0 0 0 0 0 0 0 0 0 1 0 5 9 0 25 138 138 530 395 854 861 827 910 1037 1035 1061 1542 1558
0 0 0 0 0 0 0 0 0 0 0 0 0 0 0 0 0 6 4 0 6 124 138 512 1171 1003 953 1074 979 1015 1153 1347
1 0 0 0 0 0 0 0 0 0 0 0 0 0 0 0 0 0 0 29 13 9 721 1127 1326 1216 1178 1079 1128 1020 977 1231
1 1 0 0 0 0 0 0 0 0 0 0 0 0 0 0 0 0 0 1 16 1 29 88 1163 1542 1467 1330 1244 1169 1106 1178
3 18 14 0 0 0 0 0 0 0 0 0 0 0 0 0 0 0 0 0 484 42 58 231 76 99 2011 1776 1440 1496 1296 1470
6 19 0 0 0 0 2 0 0 0 0 0 0 0 0 0 0 0 0 0 614 461 312 284 383 631 1630 2128 1820 1628 1703 1579
14 18 5 0 0 0 0 0 0 0 0 0 0 0 0 0 0 0 46 729 554 513 506 509 476 640 698 1572 2298 1785 1770 1938
11 21 2 3 0 21 0 0 0 0 0 0 0 0 0 0 0 247 262 270 673 765 892 769 784 981 958 813 1473 2477 1988 2074
13 29 8 46 21 28 2 0 0 0 0 0 0 0 0 0 107 275 323 259 354 720 924 1519 1884 1348 1027 1357 1286 1938 2588 2164
0 1 0 0 8 0 3 0 0 0 0 0 0 0 0 388 287 102 13 53 62 440 1303 2805 2298 2578 1550 1632 1905 1969 2391 2447
0 0 1 0 0 1 3 0 0 0 0 2 0 0 259 142 0 1 3 4 1 149 473 478 633 1257 2795 2029 2174 1925 2399 2714
0 0 1 3 5 6 4 3 0 5 11 0 3 78 1 0 1 3 2 3 3 4 9 18 43 462 912 1261 2319 1835 2885 2862
0 2 2 1 6 5 2 8 15 17 2 1 1 3 0 0 0 1 3 2 1 2 2 2 4 5 192 618 1458 3124 2993 3016
1 5 5 4 7 7 5 4 25 4 4 1 2 5 15 0 0 4 1 0 0 0 1 0 4 5 6 12 825 2395 3182 2973

GFSFLT2_con_mlcape_057.txt.gz
CAPE
0 0 0 0 0 0 0 0 0 0 0 0 0 18 105 116 287 213 77 202 174 384 251 220 211 173 143 148 126 507 379 12
0 0 0 0 0 0 0 0 0 0 0 0 0 0 100 171 281 319 234 393 393 398 386 224 243 228 230 329 175 423 532 265
0 0 0 0 0 0 0 0 0 0 0 0 0 0 62 176 250 374 293 202 88 31 354 172 202 211 304 623 430 401 410 677
0 0 0 0 0 0 0 0 0 0 0 0 0 0 50 330 275 348 272 261 128 1 0 189 252 344 317 496 745 644 587 527
0 0 0 0 0 0 0 0 0 0 0 0 0 0 0 0 56 348 367 294 105 3 3 358 241 366 496 451 843 912 968 639
0 0 0 0 0 0 0 0 0 0 0 0 0 0 0 0 0 68 403 256 110 74 53 93 145 310 497 509 694 964 1088 1133
0 0 0 0 0 0 0 0 0 0 0 0 0 0 0 0 0 0 3 197 65 32 8 92 91 301 601 648 529 941 1175 1267
0 0 0 0 0 0 0 0 0 0 0 0 0 0 0 0 0 0 0 0 0 0 0 61 54 183 57 472 712 630 1221 1391
0 0 0 0 0 0 0 0 0 0 0 0 0 0 0 0 0 0 0 0 0 0 57 35 20 0 0 199 837 824 836 1342
0 0 0 0 0 0 0 0 0 0 0 0 0 0 0 0 0 0 0 0 0 155 197 46 106 122 183 189 436 943 951 1052
0 0 0 0 0 0 0 0 0 0 0 0 0 0 0 0 0 0 0 0 0 0 5 331 27 33 122 19 2 246 1040 1040
1 0 0 0 0 1 0 0 0 0 0 0 0 0 0 0 0 0 0 0 0 0 0 0 534 47 0 1 1 226 537 1263
0 8 5 0 0 9 0 0 0 0 0 0 0 0 0 0 0 0 0 0 10 69 1 35 361 786 624 22 29 469 1080 1440
0 5 0 0 0 0 1 0 0 0 0 0 0 0 0 0 0 0 0 0 46 0 10 77 615 843 1245 1138 929 980 1900 1776
0 0 0 0 0 0 0 0 0 0 0 0 0 0 0 0 0 0 0 0 2 0 0 80 200 351 752 1301 1860 1765 1333 2136
0 0 0 0 0 0 0 2 0 0 0 3 1 0 0 0 0 0 0 0 0 12 32 39 7 75 257 640 1208 1683 2055 2010
0 0 2 1 0 2 2 1 2 3 0 0 0 0 0 0 0 8 0 0 1 1 5 0 0 17 21 27 351 1218 1940 2444
0 0 4 2 2 2 2 1 1 2 3 1 24 11 4 1 20 7 0 0 0 1 2 1 0 1 1 1 15 536 1313 2251
0 0 1 0 2 7 5 4 3 4 1 6 2 0 1 2 32 19 6 0 0 1 0 2 0 0 3 4 5 195 1167 1888

GFSFLT2_con_mlcape_060.txt.gz
CAPE
0 0 0 0 0 0 0 0 0 0 0 0 0 0 155 205 134 34 61 176 181 194 81 14 12 25 65 132 86 72 65 49
0 0 0 0 0 0 0 0 0 0 0 0 0 0 0 103 159 122 139 270 342 237 124 94 105 39 19 76 106 93 69 21
0 0 0 0 0 0 0 0 0 0 0 0 0 0 0 29 59 138 216 232 361 349 182 161 165 156 109 22 54 273 253 132
0 0 0 0 0 0 0 0 0 0 0 0 0 0 0 0 115 163 205 327 365 417 313 191 214 195 205 152 81 43 317 344
0 0 0 0 0 0 0 0 0 0 0 0 0 0 0 0 94 341 333 382 295 113 13 0 94 235 263 286 244 111 151 301
0 0 0 0 0 0 0 0 0 0 0 0 0 0 0 0 14 324 267 234 61 60 25 6 2 50 176 254 463 333 222 278
0 0 0 0 0 0 0 0 0 0 0 0 0 0 0 0 0 0 6 135 0 0 0 0 0 0 44 182 393 570 495 479
0 0 0 0 0 0 0 0 0 0 0 0 0 0 0 0 0 0 0 0 0 0 41 198 44 0 0 8 323 746 771 745
0 0 0 0 0 0 0 0 0 0 0 0 0 0 0 0 0 0 0 0 0 0 0 0 80 30 19 2 61 408 879 921
1 0 0 0 0 0 0 0 0 0 0 0 0 0 0 0 0 0 0 0 0 0 0 0 0 55 88 46 14 158 396 1074
6 0 0 0 0 0 0 0 0 0 0 0 0 0 0 0 0 0 0 0 0 0 0 3 0 0 1 183 342 85 339 336
0 0 0 0 0 0 0 0 0 0 0 0 0 0 0 0 0 0 0 0 0 0 0 9 185 49 124 212 37 174 195 400
0 4 0 0 0 0 2 0 0 0 0 0 0 0 0 0 0 0 0 0 0 0 0 0 0 248 258 292 173 17 0 3
0 1 0 0 0 0 0 0 1 0 0 0 0 0 0 0 0 0 0 0 0 0 0 0 3 33 310 520 440 179 0 1
0 0 0 0 2 0 0 2 0 0 1 1 0 0 0 0 0 0 0 0 0 0 0 0 88 11 0 62 466 166 21 667
0 0 0 1 0 2 3 2 1 0 0 2 2 0 0 0 0 0 0 0 0 0 0 0 0 0 0 1 33 46 0 136
0 0 0 0 0 2 3 6 0 2 2 2 3 0 0 0 0 0 1 0 0 0 0 0 0 0 0 0 1 2 17 221
0 0 0 0 0 11 5 2 7 1 2 0 2 2 5 3 1 0 0 0 4 0 0 0 0 0 0 0 1 3 3 106
0 0 0 0 0 3 2 3 6 4 5 5 0 3 2 0 1 1 0 38 22 0 0 0 0 0 0 0 0 2 1 5

GFSFLT2_con_mlcape_063.txt.gz
CAPE
0 0 0 0 0 0 0 0 0 0 0 0 0 0 0 34 137 177 159 73 123 85 19 18 0 1 61 32 0 0 24 11
0 0 0 0 0 0 0 0 0 0 0 0 0 0 0 0 19 130 242 246 108 120 24 23 39 33 57 46 12 0 13 5
0 0 0 0 0 0 0 0 0 0 0 0 0 0 0 0 0 123 77 120 76 45 62 23 47 58 85 107 89 38 36 28
0 0 0 0 0 0 0 0 0 0 0 0 0 0 0 63 0 18 28 40 133 177 108 56 19 12 47 114 156 121 70 54
0 0 0 0 0 0 0 0 0 0 0 0 0 0 0 51 211 248 230 132 37 49 47 22 41 37 8 18 48 137 160 100
0 0 0 0 0 0 0 0 0 0 0 0 0 0 0 0 0 158 141 0 0 0 0 0 0 0 17 16 39 46 113 236
0 0 0 0 0 0 0 0 0 0 0 0 0 0 0 0 0 0 0 0 0 0 0 0 0 0 0 2 20 47 48 131
0 0 0 0 0 0 0 0 0 0 0 0 0 0 0 0 0 0 0 0 0 0 0 0 0 11 0 0 15 110 169 136
0 0 0 0 0 0 0 0 0 0 0 0 0 0 0 0 0 0 0 0 0 0 0 0 0 0 25 4 0 120 292 241
0 0 0 0 0 0 0 0 0 0 0 0 0 0 0 0 0 0 0 0 0 0 0 0 0 0 61 57 27 16 466 494
0 0 0 0 0 0 0 0 0 0 0 0 0 0 0 0 0 0 0 0 0 0 0 0 0 0 0 110 113 157 37 273
0 0 0 0 0 0 0 0 0 0 0 0 1 0 0 0 0 0 0 0 0 0 0 0 0 0 0 8 175 177 87 78
0 2 0 0 0 0 0 0 0 0 0 0 1 0 0 0 0 0 0 0 0 0 0 0 0 0 0 0 0 111 160 48
0 0 0 0 0 0 0 0 0 0 0 0 0 0 0 0 0 0 0 0 0 0 0 0 0 0 0 0 0 52 335 209
0 0 0 0 0 0 1 2 0 0 0 0 1 1 2 0 0 0 0 0 0 0 0 0 0 0 0 0 0 0 0 36
0 0 0 0 0 0 0 0 1 4 5 3 1 1 1 2 0 0 0 0 0 0 0 0 0 0 0 0 0 0 0 0
0 0 0 0 0 0 0 4 4 6 8 2 3 2 2 3 8 1 4 2 0 0 0 0 0 0 0 0 0 0 0 0
0 0 0 0 0 0 0 2 6 4 1 6 6 2 2 1 1 0 6 1 0 0 0 0 0 0 0 0 0 0 0 0
0 0 0 0 0 0 2 14 13 10 2 4 3 2 3 2 4 0 0 0 1 1 0 0 0 0 0 0 0 0 0 0

GFSFLT2_con_mlcape_066.txt.gz
CAPE
0 0 0 0 0 0 0 0 0 0 0 0 0 0 0 0 0 101 197 266 206 109 41 2 11 2 34 2 0 0 2 0
0 0 0 0 0 0 0 0 0 0 0 0 0 0 0 0 0 22 106 69 136 119 32 11 0 7 33 33 0 0 34 22
0 0 0 0 0 0 0 0 0 0 0 0 0 0 0 28 60 0 136 181 96 26 9 14 0 0 6 68 37 21 41 49
0 0 0 0 0 0 0 0 0 0 0 0 0 0 0 3 199 65 52 150 137 71 34 0 0 0 0 27 51 30 21 44
0 0 0 0 0 0 0 0 0 0 0 0 0 0 0 0 0 0 0 0 8 22 34 1 1 0 19 22 52 16 6 19
0 0 0 0 0 0 0 0 0 0 0 0 0 0 0 0 0 0 0 0 0 0 0 0 1 0 18 15 15 29 29 9
0 0 0 0 0 0 0 0 0 0 0 0 0 0 0 0 0 0 0 0 0 0 0 0 0 7 35 1 19 3 44 60
0 0 0 0 0 0 0 0 0 0 0 0 0 0 0 0 0 0 0 0 0 0 0 0 0 0 0 20 0 21 38 64
0 0 0 0 0 0 0 0 0 0 0 0 0 0 0 0 0 0 0 0 0 0 0 0 0 0 0 0 51 3 41 78
0 0 0 0 0 0 0 0 0 0 0 0 0 0 0 0 0 0 0 0 0 0 0 0 0 0 0 0 27 52 0 88
0 0 0 0 0 0 0 0 0 0 0 0 0 0 0 0 0 0 0 0 0 0 0 0 0 0 0 0 0 39 82 72
0 0 0 0 0 0 0 0 0 0 0 0 0 0 0 0 0 0 0 0 0 0 0 0 0 0 0 0 0 0 53 170
0 0 0 0 0 0 0 0 0 0 1 1 1 0 0 0 0 0 0 0 0 0 0 0 0 0 0 0 0 0 0 38
0 0 0 0 0 0 0 0 0 0 0 0 0 0 0 0 0 0 0 0 0 0 0 0 0 0 0 0 0 1 0 0
0 0 0 0 0 0 0 0 0 1 0 0 2 0 0 0 0 0 1 0 0 0 0 0 0 0 0 0 0 0 0 0
0 0 0 0 0 0 0 0 0 2 2 3 3 1 0 0 0 3 2 4 0 0 0 0 0 0 0 0 0 0 0 0
0 0 0 0 0 0 0 0 0 4 0 0 1 1 4 7 3 4 0 2 2 2 1 0 1 0 0 0 5 0 0 0
0 0 0 0 0 0 0 0 0 0 0 5 5 2 1 4 2 2 4 0 1 0 0 0 0 1 0 0 6 0 0 0
0 0 0 0 0 0 0 0 0 0 0 0 0 3 6 9 3 4 6 2 1 0 0 1 0 2 1 4 1 0 0 1

GFSFLT2_con_mlcape_069.txt.gz
CAPE
0 0 0 0 0 0 0 0 0 0 0 0 0 0 0 96 108 190 512 547 413 263 189 223 244 221 190 208 205 191 224 338
0 0 0 0 0 0 0 0 0 0 0 0 0 0 0 70 96 46 243 613 590 404 195 205 271 282 225 242 237 216 217 273
0 0 0 0 0 0 0 0 0 0 0 0 0 0 0 0 1 158 390 284 538 516 318 203 182 194 216 258 296 296 293 295
0 0 0 0 0 0 0 0 0 0 0 0 0 0 0 0 0 0 4 45 292 425 233 199 152 153 152 229 293 276 345 360
0 0 0 0 0 0 0 0 0 0 0 0 0 0 0 0 0 0 0 0 0 0 0 100 198 140 64 123 248 243 250 219
0 0 0 0 0 0 0 0 0 0 0 0 0 0 0 0 0 0 0 0 0 0 0 0 0 39 127 131 103 200 236 145
0 0 0 0 0 0 0 0 0 0 0 0 0 0 0 0 0 0 0 0 0 0 0 0 0 0 1 23 38 155 274 314
0 0 0 0 0 0 0 0 0 0 0 0 0 0 0 0 0 0 0 0 0 0 0 0 0 0 0 0 5 50 69 358
0 0 0 0 0 0 0 0 0 0 0 0 0 0 0 0 0 0 0 0 0 0 0 0 0 0 0 0 3 84 133 81
0 0 0 0 0 0 0 0 0 0 0 0 0 0 0 0 0 0 0 0 0 0 0 0 0 0 0 0 0 0 245 105
0 0 0 0 0 0 0 0 0 0 0 0 0 0 0 0 0 0 0 0 0 0 0 0 0 0 0 0 0 0 6 274
0 0 0 0 0 0 0 0 0 0 0 0 0 0 0 0 0 0 0 0 0 0 0 0 0 0 0 0 0 0 0 3
0 0 0 0 0 0 0 0 0 0 0 0 0 0 0 0 0 0 0 0 0 0 0 0 0 0 0 0 0 0 0 4
0 0 0 0 0 0 0 0 0 0 0 0 0 0 0 0 0 0 0 0 0 0 0 0 0 0 0 0 0 0 0 0
0 0 0 0 0 0 0 0 0 0 0 0 0 0 0 0 0 0 1 0 1 0 0 0 0 0 0 0 0 0 0 0
0 0 0 0 0 0 0 0 0 0 0 0 1 1 0 0 2 3 4 4 3 5 6 1 0 0 0 0 2 0 0 0
0 0 0 0 0 0 0 0 0 0 0 0 4 1 5 5 3 1 2 1 1 1 5 9 7 0 0 0 0 4 0 0
0 0 0 0 0 0 0 0 0 0 0 1 6 3 2 8 2 0 0 2 6 6 6 6 6 6 0 0 4 8 6 0
0 0 0 0 0 0 0 0 0 0 0 0 0 0 4 9 11 9 4 7 4 6 3 1 1 1 6 2 5 4 4 12

GFSFLT2_con_mlcape_072.txt.gz
CAPE
0 0 0 0 0 0 0 0 0 0 0 0 0 0 25 143 286 362 885 884 756 633 559 471 491 459 582 636 1007 1009 914 1017
0 0 0 0 0 0 0 0 0 0 0 0 0 0 0 7 118 416 631 873 984 825 699 568 600 582 671 721 976 1093 1045 1020
0 0 0 0 0 0 0 0 0 0 0 0 0 0 0 0 0 4 91 366 477 725 695 713 738 718 731 772 835 1063 1070 1008
0 0 0 0 0 0 0 0 0 0 0 0 0 0 0 0 0 0 0 0 0 0 2 82 653 716 740 806 803 906 961 1062
0 0 0 0 0 0 0 0 0 0 0 0 0 0 0 0 0 0 0 0 0 0 0 0 0 46 630 686 719 677 892 942
0 0 0 0 0 0 0 0 5 0 0 0 0 0 0 0 0 0 0 0 0 0 0 0 0 0 0 226 575 630 814 798
0 0 0 0 0 0 0 0 0 0 0 0 0 0 0 0 0 0 0 0 0 0 0 0 0 0 0 1 16 322 599 859
0 0 0 0 0 0 0 0 0 0 0 0 0 0 0 0 0 0 0 0 0 0 0 0 0 0 0 0 0 0 409 495
0 0 0 0 0 0 0 0 0 0 0 0 0 0 0 0 0 0 0 0 0 0 0 0 0 0 0 0 0 0 0 460
0 0 0 0 0 0 0 0 0 0 0 0 0 0 0 0 0 0 0 0 0 0 0 0 0 0 0 0 0 0 0 0
0 0 0 0 0 0 0 0 0 0 0 0 0 0 0 0 0 0 0 0 0 0 0 0 0 0 0 0 0 0 0 0
0 0 0 0 0 0 0 0 0 0 0 0 0 0 0 0 0 0 0 0 0 0 0 0 0 0 0 0 0 0 0 0
0 0 0 0 0 0 0 0 0 0 0 0 0 0 0 0 0 0 0 0 0 0 0 0 0 0 0 0 0 0 0 0
1 2 0 0 0 0 0 0 0 0 0 0 0 0 0 0 0 0 0 0 0 0 0 0 0 0 0 0 0 0 0 0
0 4 0 0 0 0 0 0 0 0 0 0 0 0 0 0 0 0 0 0 0 0 0 0 0 0 0 0 0 0 0 0
0 0 0 0 0 0 0 0 0 0 0 0 0 0 0 0 0 0 0 0 0 0 0 0 1 1 0 0 1 0 0 0
0 0 0 0 0 0 0 0 0 0 0 0 0 0 0 0 1 1 5 5 3 4 4 2 0 3 2 0 0 0 0 0
0 0 0 0 0 0 0 0 0 0 0 3 6 7 10 9 9 7 6 5 7 3 9 4 3 2 5 7 3 2 2 0
0 0 0 0 0 0 0 0 0 0 3 6 7 3 7 4 4 3 4 3 4 10 6 7 5 6 5 13 8 1 1 9

GFSFLT2_con_mlcape_078.txt.gz
CAPE
0 0 0 18 29 45 29 1 4 61 80 118 149 344 658 574 224 166 186 47 235 403 504 332 166 204 615 1173 1491 1579 1440 1637
0 0 0 1 2 25 2 0 5 72 64 118 121 211 310 44 0 0 4 5 24 44 247 95 478 126 682 1137 1485 1650 1643 1728
0 0 0 0 4 0 0 2 21 52 72 231 154 40 1 0 0 0 3 3 16 14 0 4 87 156 69 1282 1554 1823 1808 1794
0 0 0 0 0 0 0 0 0 8 0 70 3 0 0 0 0 0 0 0 1 1 2 2 0 0 0 113 307 1549 1761 1755
0 0 0 0 0 0 1 9 51 5 1 5 0 0 0 0 0 0 0 0 0 1 1 2 0 1 0 0 9 76 764 1736
0 0 0 0 0 0 0 0 1 58 68 8 0 0 0 0 0 0 0 0 0 0 0 0 0 0 0 2 13 2 16 485
0 0 0 0 0 0 0 0 39 224 190 3 0 0 0 0 0 0 0 0 0 0 0 0 0 0 0 0 0 0 0 35
0 0 0 0 0 2 0 0 19 103 84 0 0 0 0 0 0 0 0 0 0 0 0 0 0 0 0 0 0 0 0 1
0 0 0 0 0 0 0 0 272 202 21 0 0 0 0 0 0 0 0 0 0 0 0 0 0 0 0 0 0 0 0 0
8 0 0 0 0 0 0 8 113 79 1 0 0 0 0 0 0 0 0 0 0 0 0 0 0 0 0 0 0 0 0 0
0 0 0 0 0 0 0 10 42 2 0 0 0 0 0 0 0 0 0 0 0 0 0 0 0 0 0 0 0 0 0 0
13 1 6 2 0 0 0 14 0 0 0 0 0 0 0 0 0 0 0 0 0 0 0 0 0 0 0 0 0 0 0 0
6 39 102 0 0 0 0 0 0 0 0 0 0 0 0 0 0 0 0 0 0 0 0 0 0 0 0 0 0 0 0 0
9 20 65 0 0 0 0 0 0 0 0 0 0 0 0 0 0 0 0 0 0 0 0 0 0 0 0 0 0 0 0 0
53 112 26 0 0 0 0 0 0 0 0 0 0 0 0 0 0 0 0 0 0 0 0 0 0 0 0 0 0 0 0 0
1 26 5 8 1 0 0 0 0 0 0 0 0 0 0 0 0 0 0 0 0 0 0 0 0 0 0 0 0 0 0 0
2 0 0 0 0 0 0 0 0 0 0 0 0 0 0 0 0 0 0 0 0 0 0 0 1 0 0 0 0 0 0 0
55 30 32 22 7 4 0 0 0 0 0 0 0 0 0 0 0 0 0 2 0 0 0 0 1 2 1 2 0 0 0 0
40 79 84 26 37 13 1 0 0 0 1 0 0 0 0 3 1 3 0 6 0 0 0 0 0 2 2 2 3 2 1 0

GFSFLT2_con_mlcape_081.txt.gz
CAPE
0 0 0 0 0 0 4 0 0 219 220 36 0 2 0 27 93 176 196 131 331 156 176 263 103 59 161 189 263 739 530 383
0 0 0 0 0 0 0 23 29 270 227 131 223 23 0 0 0 0 3 52 138 29 22 180 69 127 395 550 518 705 1085 969
1 0 0 0 0 5 1 0 0 14 46 29 58 0 0 0 0 0 1 3 3 2 31 37 0 35 223 298 471 401 887 988
0 0 0 0 13 12 3 0 1 63 13 0 0 0 0 0 0 0 2 3 0 4 0 0 0 0 1 4 45 70 294 670
0 0 0 0 0 0 0 0 3 4 3 0 0 0 0 0 0 0 0 1 0 0 1 1 0 0 0 0 36 19 66 162
0 0 0 0 0 0 0 0 38 12 2 0 0 0 0 0 0 0 0 0 0 0 0 2 4 1 3 2 3 5 0 6
0 0 0 0 0 0 0 0 20 42 9 0 0 0 0 0 0 0 0 0 0 0 0 0 0 0 0 0 0 0 0 0
0 0 0 0 0 0 0 105 206 232 39 0 0 0 0 0 0 0 0 0 0 0 0 0 0 0 0 0 0 0 0 0
0 0 0 0 0 0 74 221 179 47 0 0 0 0 0 0 0 0 0 0 0 0 0 0 0 0 0 0 0 0 0 0
0 0 0 0 0 0 0 85 45 0 0 0 0 0 0 0 0 0 0 0 0 0 0 0 0 0 0 0 0 0 0 0
0 0 0 0 0 0 0 0 149 16 0 0 0 0 0 0 0 0 0 0 0 0 0 0 0 0 0 0 0 0 0 0
0 0 0 0 0 0 0 0 186 37 0 0 0 0 0 0 0 0 0 0 0 0 0 0 0 0 0 0 0 0 0 0
0 12 16 0 0 0 0 8 23 3 0 0 0 0 0 0 0 0 0 0 0 0 0 0 0 0 0 0 0 0 0 0
0 0 8 0 0 0 0 0 0 0 0 0 0 0 0 0 0 0 0 0 0 0 0 0 0 0 0 0 0 0 0 0
24 0 0 0 0 0 0 0 0 0 0 0 0 0 0 0 0 0 0 0 0 0 0 0 0 0 0 0 0 0 0 0
0 32 15 0 0 0 0 0 0 0 0 0 0 0 0 0 0 0 0 0 0 0 0 0 0 0 0 0 0 0 0 0
0 0 0 0 0 0 0 0 0 0 0 0 0 0 0 0 0 0 0 0 0 0 0 0 0 0 0 0 0 0 0 0
0 43 82 11 1 0 0 0 0 0 0 0 0 0 0 0 0 0 0 0 0 0 0 0 0 0 0 0 0 0 0 0
1 17 48 44 54 66 0 0 0 0 0 0 0 0 0 0 0 0 0 0 0 0 0 0 0 0 0 0 0 0 0 0

GFSFLT2_con_mlcape_087.txt.gz
CAPE
0 0 0 0 0 0 0 0 0 1 0 23 29 49 80 97 37 23 51 146 33 26 6 20 41 99 164 152 141 133 112 102
0 0 0 0 0 0 0 0 0 10 0 0 51 45 1 1 4 0 0 22 72 84 131 49 28 158 168 345 201 182 195 164
0 0 0 0 0 0 0 0 0 7 0 0 7 0 0 0 0 0 0 0 0 4 156 178 96 162 158 180 221 213 295 319
0 0 0 0 0 0 0 0 0 0 0 0 0 0 0 0 0 1 1 3 1 0 1 74 144 190 195 139 70 29 116 258
0 0 0 0 0 0 0 0 0 0 0 0 0 0 0 0 0 0 1 1 2 1 1 17 43 130 133 71 28 7 36 71
5 0 0 0 0 0 0 0 0 0 0 0 0 0 0 0 0 0 0 0 1 1 0 1 0 5 42 41 27 19 51 20
0 0 0 0 0 0 0 0 0 0 0 0 0 0 0 0 0 0 0 0 0 0 0 0 0 0 0 0 6 17 7 17
0 0 0 0 0 0 0 0 0 0 0 0 0 0 0 0 0 0 0 0 0 0 0 0 0 1 2 1 0 0 0 0
0 0 8 0 0 0 10 26 0 0 0 0 0 0 0 0 0 0 0 0 0 0 0 0 0 0 0 0 0 0 0 1
0 0 0 0 0 0 0 0 0 0 0 0 0 0 0 0 0 0 0 0 0 0 0 0 0 0 0 0 0 0 0 0
0 0 0 0 0 0 0 0 0 0 0 0 0 0 0 0 0 0 0 0 0 0 0 0 0 0 0 0 0 0 0 0
0 0 0 0 0 0 0 0 0 0 0 0 0 0 0 0 0 0 0 0 0 0 0 0 0 0 0 0 0 0 0 0
0 0 0 0 0 0 0 0 2 1 0 0 0 0 0 0 0 0 0 0 0 0 0 0 0 0 0 0 0 0 0 0
0 0 0 0 0 0 0 0 0 0 0 0 0 0 0 0 0 0 0 0 0 0 0 0 0 0 0 0 0 0 0 0
0 0 0 0 0 0 0 0 0 0 0 0 0 0 0 0 0 0 0 0 0 0 0 0 0 0 0 0 0 0 0 0
0 0 0 0 0 0 0 0 0 0 0 0 0 0 0 0 0 0 0 0 0 0 0 0 0 0 0 0 0 0 0 0
0 0 0 0 0 0 0 0 0 0 0 0 0 0 0 0 0 0 0 0 0 0 0 0 0 0 0 0 0 0 0 0
0 0 0 0 0 0 0 0 0 0 0 0 0 0 0 0 0 0 0 0 0 0 0 0 0 0 0 0 0 0 0 0
0 0 0 0 0 0 0 0 0 0 0 0 0 0 0 0 0 0 0 0 0 0 0 0 0 0 0 0 0 0 0 0

GFSFLT2_con_mlcape_090.txt.gz
CAPE
0 0 0 0 0 0 0 0 0 0 0 0 4 60 143 130 106 47 20 3 0 0 28 3 1 38 98 125 86 64 99 196
0 0 0 0 0 0 0 0 0 2 0 0 7 58 53 51 36 8 4 9 16 17 7 0 2 29 110 111 99 77 76 181
0 0 0 0 0 0 0 0 0 0 0 0 12 28 31 0 0 0 0 8 10 20 36 2 7 46 117 255 219 93 12 103
0 0 0 0 0 0 0 0 0 0 0 0 0 0 0 0 1 0 0 0 0 3 19 92 49 94 132 154 104 97 57 149
0 0 0 0 0 0 0 0 0 0 0 0 0 0 0 0 1 2 1 1 1 1 7 18 88 156 95 76 68 71 19 46
0 0 0 0 0 0 0 0 0 0 0 3 0 0 0 0 0 0 0 0 0 1 1 1 15 53 73 56 34 13 7 28
0 0 0 0 0 0 0 0 0 0 0 0 0 0 0 0 0 0 0 0 0 0 0 1 0 4 33 33 29 36 46 41
0 0 0 0 0 0 15 0 0 0 0 0 0 0 0 0 0 0 0 0 0 0 1 1 2 1 1 0 0 6 1 0
0 0 8 0 0 0 0 0 0 0 0 0 0 0 0 0 0 0 0 0 0 0 0 0 0 0 1 1 0 0 1 1
0 0 0 0 0 0 0 0 0 0 0 0 0 0 0 0 0 0 0 0 0 0 0 0 0 0 0 0 0 0 0 0
0 0 0 0 0 0 0 0 0 0 0 0 0 0 0 0 0 0 0 0 0 0 0 0 0 0 0 0 0 0 0 0
0 0 0 0 0 0 0 0 0 0 0 0 0 14 0 0 0 0 0 0 0 0 0 0 0 0 0 0 0 0 0 0
0 0 0 0 0 0 0 0 0 0 1 0 0 0 0 0 0 0 0 0 0 0 0 0 0 0 0 0 0 0 0 0
0 0 0 0 0 0 0 0 0 0 0 0 0 0 0 0 0 0 0 0 0 0 0 0 0 0 0 0 0 0 0 0
0 0 0 0 0 0 0 0 0 0 0 0 0 0 0 0 0 0 0 0 0 0 0 0 0 0 0 0 0 0 0 0
0 0 0 0 0 0 0 0 0 0 0 0 0 0 0 0 0 0 0 0 0 0 0 0 0 0 0 0 0 0 0 0
0 0 0 0 0 0 0 0 0 0 0 0 0 0 0 0 0 0 0 0 0 0 0 0 0 0 0 0 0 0 0 0
0 0 0 0 0 0 0 0 0 0 0 0 0 0 0 0 0 0 0 0 0 0 0 0 0 0 0 0 0 0 0 0
0 0 0 0 0 0 0 0 0 0 0 0 0 0 0 0 0 0 0 0 0 0 0 0 0 0 0 0 0 0 0 0

GFSFLT2_con_mlcape_093.txt.gz
CAPE
0 0 0 0 0 0 0 0 0 3 37 0 49 152 260 219 204 290 210 50 70 269 264 103 34 50 287 236 279 234 268 231
0 0 0 0 0 0 0 0 0 2 0 0 34 73 158 225 157 178 204 60 32 126 259 225 26 15 64 86 300 291 233 267
0 0 0 0 0 0 0 0 0 0 0 38 129 115 152 94 62 49 42 35 29 51 98 102 37 8 43 50 252 219 108 127
0 0 0 0 0 0 0 0 0 4 2 0 23 146 104 83 61 27 15 7 6 18 55 102 80 31 13 65 247 267 204 101
0 0 0 0 0 0 0 0 0 0 1 0 0 3 1 20 8 1 1 0 0 14 66 175 132 79 26 19 121 104 38 32
0 0 0 0 0 0 0 0 0 0 0 0 4 26 0 0 2 1 1 2 6 6 42 93 216 223 222 113 134 94 61 47
0 0 0 0 0 0 0 0 0 0 0 6 46 21 0 1 0 0 1 0 0 1 2 6 37 96 108 91 63 41 51 49
0 0 0 0 0 68 0 0 0 0 0 0 13 0 0 1 0 0 0 0 0 1 3 2 1 1 0 1 10 94 94 68
1 0 3 0 0 0 0 0 0 0 2 0 0 0 0 0 0 0 0 0 0 1 0 0 1 1 1 1 1 1 1 1
0 0 0 0 0 0 0 0 0 0 0 0 0 0 0 0 0 0 0 0 0 1 3 1 1 0 0 0 0 0 0 0
0 0 0 0 0 0 0 0 0 0 0 0 0 0 0 0 0 0 0 0 0 0 0 0 0 0 0 0 0 0 0 0
0 0 0 0 0 0 0 0 0 1 8 3 0 116 43 0 0 0 0 0 0 0 0 0 0 0 0 0 0 0 0 0
0 0 0 0 0 0 0 0 0 1 4 0 18 27 0 0 0 0 0 0 0 0 0 0 0 0 0 0 0 0 0 0
0 0 0 0 0 0 0 0 0 0 0 0 0 0 0 0 0 0 0 0 0 0 0 0 0 0 0 0 0 0 0 0
0 0 0 0 0 0 0 0 0 0 1 0 0 0 0 0 0 0 0 0 0 0 0 0 0 0 0 0 0 0 0 0
0 0 0 0 0 0 0 0 0 0 0 0 0 0 0 0 0 0 0 0 0 0 0 0 0 0 0 0 0 0 0 0
0 0 0 0 0 0 0 0 0 0 0 0 0 0 0 0 0 0 0 0 0 0 0 0 0 0 0 0 0 0 0 0
0 0 0 0 0 0 0 0 0 0 0 0 0 0 0 0 0 0 0 0 0 0 0 0 0 0 0 0 0 0 0 0
0 0 0 0 0 0 0 0 0 0 0 0 0 0 0 0 0 0 0 0 0 0 0 0 0 0 0 0 0 0 0 0

GFSFLT2_con_mlcape_096.txt.gz
CAPE
0 0 0 0 0 0 7 14 44 30 12 158 171 282 514 604 442 513 705 430 286 461 577 628 529 505 192 148 619 994 845 841
0 0 0 0 0 4 0 35 26 55 50 7 158 241 362 734 636 558 736 728 459 444 606 411 189 69 39 506 356 779 596 744
0 0 0 0 0 0 8 10 29 33 54 444 533 605 373 521 480 676 858 755 556 638 770 699 214 23 53 114 172 745 648 772
0 0 0 0 0 0 0 0 7 26 169 341 624 717 569 334 283 226 294 268 360 554 626 660 538 90 37 7 63 96 734 487
1 0 0 0 0 0 0 0 15 23 68 423 551 660 562 560 406 189 100 71 103 222 315 498 282 114 64 75 135 384 249 270
22 0 1 0 0 0 0 0 3 30 146 305 499 471 310 299 124 45 46 40 36 66 230 288 413 505 346 164 114 125 98 24
25 1 0 1 0 0 0 0 11 33 43 328 614 642 434 135 95 50 92 104 34 18 31 60 269 674 558 409 296 320 160 76
28 17 0 47 71 8 0 0 2 11 36 72 592 640 491 249 34 108 108 69 9 2 2 7 13 109 336 327 217 305 164 109
32 19 62 28 19 28 41 53 79 9 213 218 334 325 343 310 84 108 113 46 3 5 3 3 1 1 0 0 0 12 6 2
32 33 35 44 0 0 23 22 31 75 102 184 239 271 294 299 269 59 14 0 1 4 4 3 2 1 2 1 1 0 0 0
64 26 28 0 0 0 0 9 12 87 159 250 285 130 63 59 100 58 40 1 0 0 2 2 1 1 0 0 0 0 0 0
0 47 51 1 0 0 0 0 11 88 136 141 132 311 209 7 18 6 0 1 4 0 0 0 0 0 0 0 0 0 0 0
8 0 0 0 0 0 0 7 3 118 164 137 208 15 33 1 0 0 0 0 0 0 0 0 0 0 0 0 0 0 0 0
0 0 0 0 0 0 0 0 0 82 158 138 28 0 0 0 0 0 0 0 0 0 0 0 0 0 0 0 0 0 0 0
0 0 0 0 0 0 0 0 0 10 77 119 33 0 0 0 0 0 0 0 0 0 0 0 0 0 0 0 0 0 0 0
0 0 0 0 0 0 0 0 0 0 74 88 44 10 0 0 0 0 0 0 0 0 0 0 0 0 0 0 0 0 0 0
0 0 7 0 0 0 0 0 0 0 24 83 87 33 10 0 0 0 0 0 0 0 0 0 0 0 0 0 0 0 0 0
0 0 0 0 0 0 0 0 0 0 0 8 65 67 32 11 0 0 0 0 0 0 0 0 0 0 0 0 0 0 0 0
0 0 0 0 0 0 0 0 0 0 0 0 0 1 41 72 9 0 0 0 0 0 0 0 0 0 0 0 0 0 0 0

GFSFLT2_con_mlcape_099.txt.gz
CAPE
0 0 0 0 9 34 4 12 3 3 170 257 82 66 224 346 310 546 541 246 246 313 514 819 794 781 929 1422 1326 1185 998 976
0 0 0 0 1 39 28 11 16 37 72 48 287 336 346 385 743 692 602 605 313 597 700 362 294 1001 515 450 646 1070 1140 961
0 0 0 0 0 10 52 33 17 62 139 112 364 542 668 838 904 742 757 899 863 645 832 1033 863 688 199 727 532 660 1189 977
0 0 0 0 0 0 2 19 23 2 1 337 656 903 969 1060 1109 1299 1291 1247 1112 983 1019 876 657 163 75 24 48 142 734 578
17 1 0 0 0 0 0 1 20 27 245 410 1012 831 854 711 614 793 707 915 1080 1129 1251 1200 660 335 279 145 52 18 23 216
54 6 1 0 0 0 0 1 0 6 470 653 845 833 781 668 444 324 296 270 380 593 812 817 901 816 495 308 131 98 235 126
12 14 9 0 0 0 0 5 26 29 154 574 787 797 779 593 447 303 302 212 116 125 231 427 843 861 600 342 297 369 286 271
65 2 10 15 20 3 0 0 0 23 178 8 714 991 870 698 657 625 436 345 118 37 41 50 172 979 933 832 511 418 658 485
3 27 16 54 68 44 31 36 31 114 286 185 632 886 950 752 582 521 401 205 98 32 22 8 5 53 272 520 661 738 466 350
133 44 28 58 22 31 112 92 79 226 233 388 495 672 800 718 690 551 254 159 91 6 5 3 2 1 2 2 32 71 46 26
23 0 18 62 46 57 68 98 91 201 251 384 548 722 696 658 638 447 213 169 67 2 4 3 1 0 1 2 1 0 3 1
92 5 141 0 0 0 0 186 75 106 331 502 538 569 574 416 391 328 167 19 0 2 1 2 2 0 0 0 0 0 0 0
98 19 0 1 0 0 0 106 99 165 195 408 612 619 379 405 217 126 47 0 0 0 0 0 0 0 0 0 0 0 0 0
118 10 52 0 0 2 106 44 96 217 296 374 268 250 267 227 104 73 16 2 3 1 0 0 0 0 0 0 0 0 0 0
137 314 70 36 152 75 45 36 27 95 151 248 184 199 229 182 79 26 3 0 0 0 0 0 0 0 0 0 0 0 0 0
113 45 1 0 0 0 0 0 0 7 70 123 126 176 227 183 107 37 1 0 0 0 0 0 0 0 0 0 0 0 0 0
55 109 54 16 0 0 0 0 0 0 14 82 137 160 223 213 157 91 12 0 0 0 0 0 0 0 0 0 0 0 0 0
0 3 11 0 0 0 0 0 0 0 0 51 172 218 227 222 203 142 72 1 0 0 0 0 0 0 0 0 0 0 0 0
2 0 1 0 1 0 0 0 0 0 0 0 19 159 258 269 213 127 105 29 1 0 0 0 0 0 0 0 0 0 0 0

GFSFLT2_con_mlcape_102.txt.gz
CAPE
0 0 0 34 0 12 5 0 35 40 66 168 0 0 0 25 30 2 0 22 67 111 144 112 116 650 102 1077 995 1211 1051 932
0 0 0 2 8 0 39 12 20 50 37 49 23 32 31 63 21 0 1 45 28 55 3 0 0 60 800 1102 1062 845 1079 1069
2 0 0 0 0 0 4 101 1 62 53 186 189 109 201 337 300 192 347 290 74 55 219 7 0 330 1097 982 1005 1025 951 804
1 0 0 0 0 0 3 0 2 1 54 60 107 505 449 915 630 1101 593 303 91 14 4 538 781 917 742 405 248 223 630 778
2 2 0 0 0 0 0 0 0 18 143 10 14 932 1407 1578 1691 1272 1616 1126 466 844 896 966 865 726 760 366 216 137 392 158
5 38 13 0 0 0 0 0 0 0 308 714 666 1059 938 1127 1343 1031 1184 1196 1309 1206 1168 1064 1170 812 349 286 200 103 33 37
3 0 1 0 0 0 0 0 7 98 486 378 530 1023 896 667 646 644 524 477 827 545 705 1206 1178 909 771 651 392 208 151 111
10 2 3 0 1 0 0 0 14 49 475 327 290 280 622 512 399 465 435 382 231 224 349 367 752 1137 807 517 415 446 283 247
126 136 57 10 62 52 4 0 10 514 323 68 0 0 952 692 632 619 455 293 207 121 64 5 2 253 588 1100 738 631 617 548
35 0 33 20 9 22 67 31 627 575 247 270 289 990 962 921 711 504 328 185 101 21 2 2 2 1 12 127 374 368 327 384
1 0 0 96 8 8 87 152 127 243 267 463 496 956 935 871 736 425 285 230 69 4 3 4 1 2 1 0 0 3 2 4
58 40 21 12 0 0 5 0 10 9 369 482 582 628 758 541 481 378 48 0 0 2 3 1 1 2 1 1 0 0 0 0
0 2 0 0 0 0 0 22 27 230 367 653 857 860 565 366 261 234 118 0 0 0 0 0 0 0 0 0 0 0 0 0
104 26 44 10 1 6 85 65 175 383 511 526 457 785 528 292 131 78 6 0 0 0 0 0 0 0 0 0 0 0 0 0
258 129 127 103 198 155 191 113 89 187 183 361 314 445 446 250 137 0 4 3 2 0 0 0 0 0 0 0 0 0 0 0
136 274 43 0 31 22 6 0 0 29 81 134 212 275 383 331 186 61 3 2 0 0 0 0 0 0 0 0 0 0 0 0
23 87 27 0 0 0 0 0 0 0 10 109 171 244 387 394 254 120 43 2 1 0 0 0 0 0 0 0 0 0 0 0
10 176 167 25 19 2 0 0 0 0 0 32 107 175 273 360 260 121 72 14 1 0 0 0 0 0 0 0 0 0 0 0
56 62 70 36 60 56 0 0 0 0 0 0 34 75 98 259 219 198 114 60 42 19 10 0 0 0 0 0 0 0 0 0

GFSFLT2_con_mlcape_105.txt.gz
CAPE
0 0 0 2 29 65 36 0 0 13 7 30 137 90 23 9 3 7 25 33 57 94 58 162 357 711 823 688 555 718 526 655
1 0 0 0 2 0 48 0 0 22 4 31 38 29 17 0 4 30 32 32 61 124 105 131 92 482 889 891 653 711 761 815
8 7 0 0 0 3 1 0 6 15 28 0 5 23 54 31 8 0 0 3 30 80 82 51 43 157 288 411 761 819 1069 743
1 10 0 0 0 0 0 0 10 2 111 193 107 77 45 44 29 0 0 28 41 91 59 84 3 49 0 0 522 815 930 639
0 1 4 0 0 0 0 0 0 0 89 276 161 366 91 141 69 19 0 1 42 101 49 32 20 1 45 23 569 446 668 491
0 0 0 0 0 0 0 0 0 0 101 183 93 23 786 899 724 875 130 37 69 73 91 15 31 218 195 500 411 331 271 166
4 28 0 0 2 11 0 0 0 236 211 147 54 396 632 430 483 475 436 400 244 123 167 13 132 453 433 403 235 174 83 46
22 65 94 17 71 72 25 0 536 752 608 438 566 465 334 183 229 297 446 367 436 330 289 163 545 434 460 526 436 347 169 144
79 62 97 128 13 84 157 152 246 587 463 322 167 42 0 45 208 393 305 102 150 91 120 145 257 425 612 644 551 451 343 353
33 81 166 28 0 7 106 139 146 207 25 0 0 0 0 384 517 474 275 172 25 7 1 1 4 135 238 528 587 598 703 580
1 10 33 72 0 0 5 2 0 289 389 216 38 513 591 556 376 324 252 70 0 0 1 1 1 1 18 144 181 202 159 183
6 31 13 0 0 0 0 19 0 3 201 293 437 149 466 246 243 143 55 3 0 0 1 0 1 1 0 0 0 0 0 0
44 22 0 0 0 0 0 17 2 111 0 0 0 214 287 249 111 55 2 0 0 0 0 0 0 0 0 0 0 0 0 0
0 3 0 3 0 0 3 27 33 373 15 277 59 341 473 262 258 43 0 0 0 0 0 0 0 0 0 0 0 0 0 0
30 0 0 42 139 151 65 1 0 15 273 284 390 387 331 267 127 38 0 0 0 0 0 0 0 0 0 0 0 0 0 0
87 50 70 132 3 5 0 0 0 0 1 255 472 441 296 199 114 44 7 0 0 0 0 0 0 0 0 0 0 0 0 0
122 63 16 1 0 0 0 0 0 0 0 14 228 520 463 281 132 42 1 0 0 0 0 0 0 0 0 0 0 0 0 0
34 70 40 2 0 0 0 0 0 0 0 0 9 334 255 136 59 33 15 3 2 0 0 0 0 0 0 0 0 0 0 0
79 50 7 7 22 0 0 0 0 0 0 0 0 218 225 215 118 58 41 24 8 1 0 0 0 0 0 0 0 0 0 0

GFSFLT2_con_mlcape_108.txt.gz
CAPE
0 247 288 207 50 36 18 6 3 1 5 0 0 46 40 20 12 29 59 102 93 43 76 124 182 251 211 194 191 361 332 228
0 1 193 100 71 48 26 12 7 0 0 0 0 0 5 21 13 36 10 79 124 96 63 161 165 241 669 331 264 367 481 546
0 0 0 0 0 0 0 12 11 9 0 0 0 3 39 27 24 44 14 28 135 165 150 181 290 369 277 399 496 454 490 618
0 0 0 0 0 0 0 0 21 29 1 11 0 0 16 19 14 18 12 43 103 158 137 111 127 31 7 171 432 548 624 516
9 8 3 0 0 0 0 0 0 0 6 28 19 0 0 0 10 33 34 65 100 107 54 46 30 11 1 111 95 274 369 351
0 0 0 0 0 1 0 0 0 0 0 65 15 78 87 22 32 97 63 21 59 87 79 48 109 42 28 117 84 216 154 283
0 16 64 60 27 14 3 0 0 0 1 21 74 199 416 284 247 205 58 53 60 51 81 114 94 149 64 117 196 148 186 187
7 7 64 45 12 86 47 20 239 136 0 164 274 551 454 480 522 446 310 156 92 104 131 93 76 87 213 222 219 216 150 86
33 0 18 48 0 52 130 101 106 226 180 334 419 564 325 350 493 513 483 355 179 183 161 128 108 95 6 66 233 183 158 176
0 0 0 1 0 0 36 28 277 320 350 182 0 10 238 364 331 425 421 260 151 31 24 6 14 71 65 50 202 249 243 258
0 1 27 15 0 0 0 0 33 254 185 124 124 352 366 341 325 297 51 3 1 1 0 1 1 8 82 183 181 386 396 425
0 0 0 1 0 0 0 0 10 132 224 169 504 164 189 100 105 56 31 0 0 1 1 1 0 1 61 72 156 194 137 157
0 0 0 0 0 0 1 0 120 28 56 197 95 145 79 21 1 1 0 0 0 0 0 1 1 1 6 3 24 1 0 0
0 0 0 0 0 0 0 111 83 30 0 1 1 0 0 22 4 0 0 0 0 0 0 0 0 0 0 0 1 0 0 0
37 54 0 11 81 8 5 226 106 210 68 0 0 0 31 91 11 0 0 0 0 0 0 0 0 0 0 0 0 0 0 0
31 17 86 9 1 0 0 0 0 20 156 330 249 220 160 105 48 2 0 0 0 0 0 0 0 0 0 0 0 0 0 0
51 52 138 10 6 0 0 0 0 0 86 331 353 243 143 92 96 25 0 0 0 0 0 0 0 0 0 0 0 0 0 0
63 51 0 0 0 0 0 0 0 0 0 238 378 259 204 149 84 12 0 0 0 0 0 0 0 0 0 0 0 0 0 0
71 43 0 0 0 0 0 0 0 0 0 11 250 253 197 157 100 55 10 2 0 0 0 0 0 0 0 0 0 0 0 0

GFSFLT2_con_mlcape_111.txt.gz
CAPE
614 691 534 383 176 32 23 7 2 0 2 1 0 0 8 21 11 3 6 34 74 92 82 58 34 56 85 5 0 92 45 176
0 131 428 329 198 101 50 38 3 0 4 0 1 15 60 59 8 0 0 56 51 65 133 110 96 72 91 59 7 30 93 262
0 3 34 69 64 3 16 17 3 1 3 4 0 0 33 57 17 1 45 36 52 23 136 166 189 162 157 154 140 142 270 316
4 0 0 14 0 5 3 0 1 9 1 34 0 0 0 25 2 0 26 77 87 109 184 217 223 239 237 234 276 317 320 417
21 39 56 16 9 0 0 0 0 0 0 23 5 0 1 28 44 24 15 43 93 130 146 187 214 194 262 251 235 314 433 312
1 17 28 45 44 3 0 0 0 0 0 0 29 10 10 32 27 27 53 41 33 102 154 154 120 98 89 13 35 146 277 217
0 50 66 92 101 42 0 0 0 0 0 0 98 94 101 70 62 31 11 38 47 89 93 93 49 14 0 9 43 80 164 109
34 19 1 28 52 76 38 40 29 67 11 282 526 534 440 238 170 52 17 23 32 40 59 74 81 98 47 78 90 128 66 104
14 0 0 0 0 20 34 209 128 30 107 380 417 638 491 629 477 286 111 107 92 117 100 95 82 126 180 131 104 123 126 87
2 3 0 0 0 0 0 5 239 261 127 231 373 404 339 351 269 187 94 76 56 50 111 89 80 79 47 37 93 72 141 84
0 0 0 1 0 0 0 2 86 239 158 520 540 448 242 146 106 86 53 1 1 0 1 0 0 1 31 35 8 42 181 197
0 0 0 0 0 0 0 4 133 342 471 555 307 229 218 66 0 0 0 0 0 1 1 1 1 2 1 39 1 3 6 84
0 0 0 0 0 0 12 11 158 331 408 358 262 214 75 56 2 0 0 0 0 0 0 2 3 1 0 1 0 2 2 1
0 0 0 0 0 0 1 179 140 214 267 130 36 41 0 0 0 0 0 0 0 0 0 0 0 0 1 1 2 1 2 2
0 0 0 0 17 24 132 199 110 54 19 0 1 23 0 0 0 0 0 0 0 0 0 0 0 0 0 0 0 0 0 0
0 1 1 0 3 47 146 151 234 34 3 0 0 1 4 9 0 0 0 0 0 0 0 0 0 0 0 0 0 0 0 0
4 23 16 0 0 0 9 95 234 252 67 183 280 268 61 0 0 0 0 0 0 0 0 0 0 0 0 0 0 0 0 0
0 46 3 0 0 0 0 0 86 169 308 497 534 303 90 25 0 0 0 0 0 0 0 0 0 0 0 0 0 0 0 0
0 27 0 0 0 0 0 0 0 13 310 475 468 315 149 74 22 0 0 0 0 0 0 0 0 0 0 0 0 0 0 0

GFSFLT2_con_mlcape_114.txt.gz
CAPE
326 674 497 407 203 73 95 27 45 33 1 0 0 0 0 13 26 14 8 0 0 20 46 69 84 81 99 85 33 67 125 116
1 414 614 546 366 187 75 5 22 3 1 0 0 0 0 17 26 22 9 0 9 28 32 43 84 96 102 113 39 0 115 87
0 35 253 209 314 107 15 42 1 0 0 0 0 0 24 16 35 26 2 16 14 8 24 23 61 73 108 126 78 67 113 106
15 0 0 94 276 148 46 0 0 0 0 32 4 6 32 28 44 25 29 7 34 29 59 38 80 87 94 119 122 113 133 132
20 1 25 33 112 0 0 0 0 0 0 107 26 4 29 60 52 29 16 18 26 46 56 82 135 145 145 140 135 160 154 196
0 4 19 93 190 88 0 0 0 0 0 0 107 58 92 95 76 42 29 36 79 105 93 53 101 186 202 180 197 200 214 240
0 131 65 47 132 171 1 0 0 0 0 116 230 210 83 80 110 76 35 74 98 132 137 65 102 156 162 174 165 211 242 250
31 33 57 0 2 138 201 209 55 52 116 485 563 591 248 170 109 138 103 87 100 83 120 127 187 160 85 48 0 73 203 164
0 9 8 0 0 45 86 171 242 38 193 352 548 489 318 336 145 105 157 126 139 137 139 85 107 96 58 31 7 14 62 66
7 3 0 0 0 0 17 45 331 376 350 543 450 309 270 251 263 181 133 67 56 92 112 47 90 176 122 78 72 40 43 65
1 0 0 12 6 0 0 55 221 325 411 519 467 160 100 62 42 67 39 14 5 1 2 1 7 41 78 102 79 65 44 51
0 0 0 5 0 0 0 36 255 346 579 762 228 180 128 22 1 0 0 0 1 2 2 1 2 1 26 46 109 40 55 87
0 0 0 0 0 3 0 13 344 558 696 602 287 200 158 32 0 0 0 0 0 0 1 1 3 1 0 0 0 0 0 0
0 0 0 0 0 24 3 130 432 494 465 299 159 137 64 0 0 0 0 0 0 0 0 1 2 1 1 1 2 1 1 0
0 0 0 0 0 0 104 285 236 440 254 167 68 34 0 0 0 0 0 0 0 0 0 0 0 0 0 1 0 0 1 1
0 0 0 1 51 219 421 245 167 147 30 54 23 1 0 0 0 0 0 0 0 0 0 0 0 0 0 0 0 0 0 0
0 0 0 2 12 40 165 306 326 166 33 25 11 12 0 0 0 0 0 0 0 0 0 0 0 0 0 0 0 0 0 0
0 0 1 6 0 21 39 224 273 183 148 166 254 47 1 0 0 0 0 0 0 0 0 0 0 0 0 0 0 0 0 0
0 0 0 0 2 13 12 93 454 447 515 501 327 127 44 0 0 0 0 0 0 0 0 0 0 0 0 0 0 0 0 0

GFSFLT2_con_mlcape_117.txt.gz
CAPE
270 336 350 403 62 58 188 164 41 171 126 46 24 0 0 0 2 41 2 0 4 45 45 63 38 108 64 66 99 221 326 369
3 486 451 603 325 216 114 30 28 128 93 52 48 14 0 2 0 47 33 0 16 57 59 64 76 137 133 155 129 160 305 383
0 67 137 330 349 329 285 235 88 69 26 83 66 55 31 9 14 28 43 2 9 27 45 68 132 143 157 196 248 189 242 342
0 0 0 244 359 306 256 31 241 181 1 45 51 82 127 108 77 56 52 2 6 20 19 36 98 156 167 217 214 265 327 337
16 19 28 90 251 61 0 55 186 43 0 96 138 91 177 198 220 118 68 48 36 30 12 52 114 139 170 201 197 264 316 315
3 62 102 273 290 406 22 4 42 5 0 0 116 237 144 249 193 145 110 124 112 60 20 2 80 197 168 168 147 221 320 307
3 151 166 124 157 337 256 100 0 1 38 259 417 459 410 249 198 165 128 130 124 130 165 56 87 151 261 175 162 307 255 366
130 204 69 136 26 274 546 551 485 313 321 548 589 857 464 306 288 258 209 215 182 164 132 103 94 97 153 281 238 243 465 486
128 146 59 2 27 11 298 389 414 417 593 479 560 631 570 435 370 369 268 270 268 203 107 84 27 47 67 108 141 121 171 235
177 116 7 17 33 83 113 94 392 573 544 483 444 350 309 418 315 265 174 171 196 223 120 63 89 94 61 62 53 55 17 28
54 42 8 88 62 35 25 98 236 501 605 557 391 256 256 153 138 100 62 21 6 8 17 28 82 265 167 153 133 106 74 83
15 2 1 36 33 10 5 15 181 742 687 755 556 289 93 63 49 41 4 3 1 2 2 5 1 23 158 148 145 141 99 74
8 30 2 0 4 15 8 29 414 886 697 994 522 463 108 2 1 2 4 1 1 1 0 2 2 1 39 35 26 20 17 14
0 0 0 0 0 65 22 125 661 902 689 530 127 78 19 2 6 2 3 1 2 1 2 2 2 1 1 0 3 2 1 1
0 0 0 0 0 0 5 511 568 702 441 147 106 5 8 18 27 8 2 1 1 0 0 1 1 0 0 1 0 1 2 2
0 4 10 10 10 20 310 392 615 648 450 210 44 58 73 40 20 1 0 0 0 0 0 0 0 0 0 0 0 0 0 1
0 19 90 115 111 169 331 502 425 398 366 245 119 20 5 7 6 0 0 0 0 0 0 0 0 0 0 0 0 0 0 0
0 34 149 204 38 216 386 657 419 243 252 348 140 10 0 0 0 0 0 0 0 0 0 0 0 0 0 0 0 0 0 0
12 8 0 36 27 49 127 505 482 418 466 541 238 38 3 0 0 0 0 0 0 0 0 0 0 0 0 0 0 0 0 0

GFSFLT2_con_mlcape_120.txt.gz
CAPE
0 6 12 28 22 4 31 40 28 63 227 287 238 135 89 28 5 0 0 57 126 92 228 262 313 298 331 330 397 347 425 602
1 135 142 199 207 67 4 19 59 66 189 163 111 213 148 69 12 8 5 33 138 118 236 346 339 336 395 388 318 309 321 495
1 37 45 136 160 188 130 217 100 173 200 164 119 231 272 164 94 42 92 73 117 147 261 368 361 341 481 446 301 322 352 454
28 10 0 1 114 127 142 47 191 103 10 326 230 322 351 287 100 68 86 65 47 200 336 345 352 364 591 535 492 453 390 537
13 40 15 28 110 153 96 141 18 115 122 207 226 332 439 421 410 175 199 165 66 103 373 323 233 457 495 658 661 661 666 695
1 8 5 93 188 317 241 107 87 66 69 4 364 97 614 520 507 341 240 226 100 31 80 82 69 106 513 662 718 789 758 800
0 0 49 49 171 278 319 235 131 59 94 170 742 559 970 637 596 496 462 396 276 46 17 46 44 83 445 732 847 876 858 805
0 23 86 149 139 131 420 549 598 600 473 1001 836 857 1178 738 617 482 494 382 413 288 85 50 35 38 110 669 1035 750 433 284
70 103 160 167 137 189 230 393 476 449 624 836 996 819 754 972 784 688 624 573 386 412 301 257 85 61 61 393 752 479 229 297
70 106 81 180 299 171 128 197 329 293 653 950 789 541 523 715 667 445 502 613 623 556 420 114 78 93 52 70 174 486 254 244
129 85 75 146 263 243 229 105 24 76 962 893 709 724 365 155 64 91 54 40 57 76 120 170 86 52 57 38 24 45 97 89
42 101 43 428 440 291 169 84 196 358 1213 1095 1122 854 267 10 2 5 3 5 4 3 11 35 127 259 162 82 83 117 111 128
30 114 74 155 231 223 115 322 891 1222 1422 1266 1013 493 41 10 3 4 6 4 4 3 4 5 19 158 358 325 249 208 119 54
108 114 67 63 115 232 336 810 1111 1491 1414 796 418 239 107 87 44 23 7 3 4 3 4 4 3 0 1 15 8 11 12 2
101 245 378 260 150 214 204 891 1265 1263 1133 932 350 213 177 86 100 61 10 1 1 0 0 0 1 1 0 1 3 2 0 0
141 358 341 395 262 219 767 1112 1317 862 968 442 156 54 19 84 120 76 36 6 0 0 0 0 0 0 1 0 0 1 1 1
0 132 449 547 766 840 937 1326 1186 846 479 317 153 209 292 323 268 99 0 0 1 0 0 0 0 0 0 0 0 0 0 0
21 21 585 530 593 971 1148 1038 978 778 462 247 196 142 59 6 0 0 0 0 0 0 0 0 0 0 0 0 0 0 0 0
36 86 436 296 327 513 838 936 750 875 521 294 160 47 0 0 0 0 0 0 0 0 0 0 0 0 0 0 0 0 0 0

GFSFLT2_con_mlcape_123.txt.gz
CAPE
0 0 0 2 0 0 16 13 11 104 50 87 5 18 119 119 169 52 92 157 103 116 108 409 417 442 646 626 704 643 791 813
0 0 0 0 18 4 8 7 36 59 20 174 63 0 12 172 189 190 196 278 251 142 137 202 319 596 554 711 747 609 526 630
0 0 5 28 4 0 15 26 21 65 196 10 5 19 329 212 156 114 54 67 149 79 147 228 426 531 668 749 747 630 465 601
11 0 7 49 6 37 52 46 0 0 41 0 87 0 413 309 101 133 138 106 155 209 153 279 549 620 726 773 733 588 449 685
0 0 17 2 0 4 24 49 49 87 152 118 433 51 153 469 702 219 261 193 186 217 196 420 650 726 644 821 776 629 486 465
0 0 0 0 3 13 23 55 6 43 86 16 7 374 221 291 693 359 298 281 144 101 95 555 758 964 826 926 910 834 732 473
0 0 0 0 11 0 18 68 53 10 6 104 0 179 579 688 758 608 106 248 79 18 11 312 755 922 925 1127 1122 1089 1064 1006
0 0 0 0 2 3 0 17 62 71 32 777 1159 1332 1124 929 857 685 641 495 422 311 176 85 269 442 268 503 1042 1270 1207 1233
44 33 17 15 12 10 57 20 68 58 177 362 1030 1258 855 1082 1084 494 668 632 475 610 212 131 57 179 349 268 442 819 957 1065
0 6 23 39 0 2 1 14 0 0 160 991 1202 693 476 408 496 430 359 507 233 392 468 152 23 91 122 140 353 566 853 885
46 87 56 45 61 59 199 50 9 24 43 1474 1201 708 218 49 47 3 2 5 10 184 388 279 158 112 71 41 54 170 559 476
7 30 2 51 0 0 20 241 304 219 187 640 1309 1017 225 3 75 26 5 2 2 8 118 251 236 177 83 25 10 13 30 48
33 39 95 146 237 278 176 328 556 484 313 1449 1252 811 231 107 27 4 2 1 3 3 3 23 84 265 180 48 28 44 96 76
103 129 119 231 238 60 633 565 385 1554 1464 1345 989 650 340 235 143 45 3 4 3 2 3 3 2 32 47 22 58 65 50 54
157 156 431 431 153 473 451 724 1103 1503 1572 1310 872 720 523 357 249 53 1 2 1 2 1 2 2 1 0 2 1 2 1 1
135 166 244 351 419 313 666 1271 1675 1694 1400 1018 963 703 509 353 235 105 1 0 0 0 0 0 0 1 1 1 1 0 1 1
0 0 190 431 642 933 1243 1278 1387 1477 1116 912 741 574 513 383 185 35 26 0 0 0 0 0 0 0 0 0 0 0 0 0
56 41 403 563 862 1164 1301 1143 995 944 847 804 684 472 382 143 12 13 22 0 0 0 0 0 0 0 0 0 0 0 0 0
97 29 453 480 849 1231 1107 1087 937 948 658 413 179 52 4 0 0 0 0 0 0 0 0 0 0 0 0 0 0 0 0 0